OK1OBR-13 Weather Reports


time (UTC)temp
C
wind
direction
speed
KPH
gust
KPH
rain 1hr
cm
rain 24hr
cm
rain mn
cm
humidity
%
barometer
mb
20260507035601 10 230 1.6 1.6 0.00 0.00 0.00 93 930.9
20260507035501 10 245 1.6 1.6 0.00 0.00 0.00 93 930.9
20260507035401 10 244 1.6 3.2 0.00 0.00 0.00 93 931.0
20260507035301 10 223 1.6 1.6 0.00 0.00 0.00 93 930.8
20260507035201 10 256 1.6 1.6 0.00 0.00 0.00 93 930.9
20260507035101 10 228 1.6 1.6 0.00 0.00 0.00 93 930.8
20260507035001 10 242 0.0 1.6 0.00 0.00 0.00 93 930.6
20260507034901 10 230 1.6 1.6 0.00 0.00 0.00 93 930.7
20260507034801 10 281 1.6 3.2 0.00 0.00 0.00 93 930.9
20260507034701 10 226 1.6 3.2 0.00 0.00 0.00 93 930.6
20260507034601 10 251 1.6 1.6 0.00 0.00 0.00 93 931.0
20260507034501 10 234 0.0 3.2 0.00 0.00 0.00 93 930.9
20260507034401 10 223 1.6 3.2 0.00 0.00 0.00 93 930.9
20260507034305 10 219 1.6 1.6 0.00 0.00 0.00 93 930.8
20260507034201 10 213 0.0 1.6 0.00 0.00 0.00 93 930.6
20260507034102 10 216 1.6 1.6 0.00 0.00 0.00 93 930.8
20260507034000 10 221 1.6 1.6 0.00 0.00 0.00 93 930.9
20260507033901 10 213 1.6 1.6 0.00 0.00 0.00 93 930.8
20260507033801 10 213 0.0 1.6 0.00 0.00 0.00 93 930.6
20260507033701 10 217 0.0 3.2 0.00 0.00 0.00 93 930.8
20260507033602 10 221 1.6 3.2 0.00 0.00 0.00 93 930.8
20260507033501 10 213 1.6 1.6 0.00 0.00 0.00 93 930.8
20260507033401 10 215 1.6 1.6 0.00 0.00 0.00 92 930.7
20260507033301 10 210 1.6 1.6 0.00 0.00 0.00 92 930.7
20260507033203 10 205 1.6 1.6 0.00 0.00 0.00 92 930.8
20260507033101 10 208 1.6 1.6 0.00 0.00 0.00 92 930.6
20260507033001 10 219 1.6 1.6 0.00 0.00 0.00 92 930.6
20260507032901 10 217 1.6 1.6 0.00 0.00 0.00 92 930.7
20260507032801 10 194 1.6 1.6 0.00 0.00 0.00 92 930.5
20260507032701 10 209 1.6 3.2 0.00 0.00 0.00 92 930.6
20260507032602 10 208 1.6 3.2 0.00 0.00 0.00 92 930.7
20260507032501 10 219 3.2 3.2 0.00 0.00 0.00 92 930.8
20260507032401 10 209 1.6 1.6 0.00 0.00 0.00 92 930.6
20260507032301 10 219 1.6 1.6 0.00 0.00 0.00 92 930.8
20260507032201 10 213 1.6 3.2 0.00 0.00 0.00 92 930.8
20260507032100 10 222 1.6 3.2 0.00 0.00 0.00 91 930.7
20260507032001 10 217 1.6 1.6 0.00 0.00 0.00 91 930.6
20260507031902 10 213 1.6 3.2 0.00 0.00 0.00 91 930.7
20260507031801 10 213 1.6 4.8 0.00 0.00 0.00 91 930.6
20260507031701 10 219 3.2 4.8 0.00 0.00 0.00 91 930.7
20260507031601 10 211 3.2 4.8 0.00 0.00 0.00 91 930.6
20260507031501 10 209 3.2 3.2 0.00 0.00 0.00 91 930.6
20260507031401 10 193 3.2 3.2 0.00 0.00 0.00 91 930.4
20260507031301 10 205 1.6 3.2 0.00 0.00 0.00 91 930.5
20260507031201 10 205 3.2 3.2 0.00 0.00 0.00 91 930.4
20260507031101 10 202 1.6 3.2 0.00 0.00 0.00 91 930.6
20260507031001 10 202 3.2 3.2 0.00 0.00 0.00 91 930.6
20260507030901 10 207 1.6 1.6 0.00 0.00 0.00 91 930.5
20260507030801 10 213 1.6 3.2 0.00 0.00 0.00 91 930.4
20260507030701 10 208 1.6 3.2 0.00 0.00 0.00 90 930.4
20260507030601 10 210 3.2 3.2 0.00 0.00 0.00 90 930.5
20260507030501 10 210 3.2 3.2 0.00 0.00 0.00 90 930.5
20260507030401 10 210 1.6 3.2 0.00 0.00 0.00 90 930.5
20260507030301 10 210 3.2 3.2 0.00 0.00 0.00 90 930.7
20260507030201 10 212 1.6 3.2 0.00 0.00 0.00 90 930.7
20260507030101 10 199 1.6 3.2 0.00 0.00 0.00 90 930.5
20260507030001 10 201 1.6 3.2 0.00 0.00 0.00 90 930.3
20260507025901 10 196 1.6 3.2 0.00 0.00 0.00 90 930.2
20260507025801 10 222 3.2 3.2 0.00 0.00 0.00 90 930.4
20260507025701 10 212 3.2 4.8 0.00 0.00 0.00 90 930.4
20260507025601 10 207 3.2 4.8 0.00 0.00 0.00 90 930.4
20260507025501 10 212 3.2 4.8 0.00 0.00 0.00 90 930.4
20260507025401 10 214 3.2 4.8 0.00 0.00 0.00 90 930.5
20260507025301 10 223 1.6 3.2 0.00 0.00 0.00 90 930.5
20260507025201 10 203 3.2 3.2 0.00 0.00 0.00 90 930.3
20260507025101 10 220 3.2 3.2 0.00 0.00 0.00 90 930.5
20260507025001 10 194 1.6 3.2 0.00 0.00 0.00 90 930.4
20260507024901 10 204 1.6 3.2 0.00 0.00 0.00 90 930.4
20260507024801 10 205 1.6 3.2 0.00 0.00 0.00 90 930.4
20260507024701 10 205 3.2 3.2 0.00 0.00 0.00 90 930.4
20260507024601 10 213 1.6 3.2 0.00 0.00 0.00 90 930.4
20260507024501 10 199 1.6 3.2 0.00 0.00 0.00 90 930.3
20260507024401 10 195 1.6 3.2 0.00 0.00 0.00 89 930.3
20260507024301 10 193 1.6 3.2 0.00 0.00 0.00 90 930.5
20260507024206 10 193 3.2 3.2 0.00 0.00 0.00 89 930.2
20260507024101 10 199 3.2 3.2 0.00 0.00 0.00 89 930.2
20260507024001 10 212 3.2 3.2 0.00 0.00 0.00 89 930.4
20260507023901 10 211 1.6 3.2 0.00 0.00 0.00 89 930.1
20260507023801 10 189 1.6 3.2 0.00 0.00 0.00 89 930.2
20260507023701 10 182 1.6 3.2 0.00 0.00 0.00 88 930.1
20260507023601 10 201 1.6 3.2 0.00 0.00 0.00 88 930.1
20260507023501 10 193 1.6 3.2 0.00 0.00 0.00 88 930.2
20260507023400 10 217 1.6 3.2 0.00 0.00 0.00 88 930.2
20260507023301 10 204 3.2 3.2 0.00 0.00 0.00 87 930.2
20260507023201 10 200 1.6 3.2 0.00 0.00 0.00 87 930.2
20260507023101 10 207 1.6 3.2 0.00 0.00 0.00 86 930.1
20260507023001 10 212 1.6 3.2 0.00 0.00 0.00 86 930.1
20260507022901 10 207 1.6 3.2 0.00 0.00 0.00 86 930.3
20260507022802 10 212 3.2 3.2 0.00 0.00 0.00 86 930.1
20260507022701 10 210 1.6 3.2 0.00 0.00 0.00 86 930.1
20260507022601 10 213 3.2 3.2 0.00 0.00 0.00 87 930.1
20260507022501 10 223 1.6 3.2 0.00 0.00 0.00 87 930.1
20260507022401 10 199 1.6 3.2 0.00 0.00 0.00 87 930.3
20260507022300 10 210 1.6 1.6 0.00 0.00 0.00 88 930.1
20260507022201 10 200 1.6 1.6 0.00 0.00 0.00 88 930.1
20260507022101 10 210 1.6 1.6 0.00 0.00 0.00 88 930.1
20260507022003 10 208 1.6 1.6 0.00 0.00 0.00 88 930.3
20260507021903 10 194 1.6 1.6 0.00 0.00 0.00 89 930.3
20260507021801 10 205 1.6 1.6 0.00 0.00 0.00 89 930.3
20260507021701 10 195 1.6 1.6 0.00 0.00 0.00 89 930.1
20260507021601 10 196 1.6 1.6 0.00 0.00 0.00 89 930.3
20260507021501 10 191 1.6 1.6 0.00 0.00 0.00 89 930.2
20260507021401 10 212 0.0 1.6 0.00 0.00 0.00 89 930.4
20260507021300 10 212 1.6 1.6 0.00 0.00 0.00 89 930.3
20260507021201 10 213 1.6 1.6 0.00 0.00 0.00 90 930.1
20260507021101 10 216 1.6 1.6 0.00 0.00 0.00 90 930.1
20260507021001 10 230 1.6 1.6 0.00 0.00 0.00 90 930.5
20260507020901 10 213 0.0 1.6 0.00 0.00 0.00 90 930.3
20260507020801 10 214 0.0 1.6 0.00 0.00 0.00 90 930.3
20260507020701 10 216 0.0 1.6 0.00 0.00 0.00 90 930.3
20260507020601 10 216 0.0 1.6 0.00 0.00 0.00 90 930.4
20260507020501 10 216 0.0 1.6 0.00 0.00 0.00 90 930.4
20260507020401 10 216 1.6 1.6 0.00 0.00 0.00 90 930.4
20260507020301 10 222 1.6 1.6 0.00 0.00 0.00 91 930.5
20260507020201 10 217 1.6 3.2 0.00 0.00 0.00 91 930.3
20260507020100 10 211 3.2 3.2 0.00 0.00 0.00 91 930.3
20260507020001 10 205 1.6 1.6 0.00 0.00 0.00 91 930.2
20260507015902 10 220 1.6 1.6 0.00 0.00 0.00 92 930.4
20260507015801 10 221 0.0 1.6 0.00 0.00 0.00 92 930.1
20260507015701 10 214 1.6 1.6 0.00 0.00 0.00 92 930.3
20260507015601 10 205 1.6 1.6 0.00 0.00 0.00 92 930.5
20260507015501 9 208 1.6 3.2 0.00 0.00 0.00 92 930.5
20260507015401 9 212 1.6 3.2 0.00 0.00 0.00 93 930.4
20260507015301 9 212 1.6 1.6 0.00 0.00 0.00 93 930.4
20260507015201 9 214 1.6 3.2 0.00 0.00 0.00 92 930.4
20260507015100 10 213 1.6 1.6 0.00 0.00 0.00 92 930.2
20260507015001 10 212 1.6 1.6 0.00 0.00 0.00 92 930.3
20260507014901 10 211 1.6 3.2 0.00 0.00 0.00 92 930.5
20260507014800 10 212 1.6 3.2 0.00 0.00 0.00 92 930.2
20260507014702 10 208 1.6 3.2 0.00 0.00 0.00 92 930.3
20260507014601 10 213 1.6 3.2 0.00 0.00 0.00 92 930.4
20260507014501 10 203 3.2 3.2 0.00 0.00 0.00 91 930.0
20260507014400 10 202 3.2 3.2 0.00 0.00 0.00 91 930.1
20260507014301 10 202 1.6 3.2 0.00 0.00 0.00 91 930.2
20260507014201 10 199 1.6 3.2 0.00 0.00 0.00 91 930.2
20260507014101 10 195 3.2 3.2 0.00 0.00 0.00 91 930.1
20260507014001 10 206 1.6 3.2 0.00 0.00 0.00 91 930.2
20260507013901 10 215 1.6 3.2 0.00 0.00 0.00 91 930.2
20260507013801 10 203 1.6 3.2 0.00 0.00 0.00 90 930.1
20260507013700 10 199 1.6 3.2 0.00 0.00 0.00 90 930.1
20260507013601 10 194 1.6 3.2 0.00 0.00 0.00 90 930.2
20260507013501 10 209 1.6 3.2 0.00 0.00 0.00 90 930.1
20260507013402 10 216 3.2 3.2 0.00 0.00 0.00 90 930.1
20260507013300 10 209 1.6 1.6 0.00 0.00 0.00 90 929.9
20260507013201 10 196 1.6 1.6 0.00 0.00 0.00 91 930.0
20260507013100 10 200 1.6 3.2 0.00 0.00 0.00 91 930.1
20260507013001 10 211 1.6 3.2 0.00 0.00 0.00 91 930.0
20260507012900 10 216 1.6 3.2 0.00 0.00 0.00 91 930.0
20260507012801 10 211 1.6 1.6 0.00 0.00 0.00 91 930.1
20260507012701 10 188 1.6 1.6 0.00 0.00 0.00 91 930.1
20260507012601 10 187 1.6 1.6 0.00 0.00 0.00 92 930.1
20260507012501 10 194 1.6 1.6 0.00 0.00 0.00 92 930.0
20260507012401 10 209 1.6 1.6 0.00 0.00 0.00 92 930.1
20260507012301 10 215 1.6 1.6 0.00 0.00 0.00 92 929.9
20260507012201 10 209 1.6 1.6 0.00 0.00 0.00 92 930.1
20260507012101 10 209 1.6 1.6 0.00 0.00 0.00 92 930.2
20260507012000 10 215 1.6 1.6 0.00 0.00 0.00 93 930.0
20260507011901 10 207 1.6 3.2 0.00 0.00 0.00 93 930.0
20260507011801 10 209 1.6 3.2 0.00 0.00 0.00 93 930.0
20260507011700 10 209 1.6 3.2 0.00 0.00 0.00 94 930.0
20260507011601 10 212 1.6 1.6 0.00 0.00 0.00 94 930.1
20260507011501 10 212 1.6 1.6 0.00 0.00 0.00 95 930.0
20260507011401 10 211 1.6 1.6 0.00 0.00 0.00 95 930.0
20260507011302 9 211 1.6 1.6 0.00 0.00 0.00 95 930.0
20260507011202 9 211 1.6 1.6 0.00 0.00 0.00 95 930.1
20260507011101 9 160 1.6 1.6 0.00 0.00 0.00 95 929.7
20260507011001 9 160 1.6 1.6 0.00 0.00 0.00 95 929.9
20260507010900 9 160 0.0 1.6 0.00 0.00 0.00 95 929.8
20260507010801 9 160 1.6 1.6 0.00 0.00 0.00 95 929.6
20260507010700 9 159 1.6 1.6 0.00 0.00 0.00 95 929.8
20260507010600 9 160 1.6 1.6 0.00 0.00 0.00 95 929.8
20260507010501 9 159 1.6 1.6 0.00 0.00 0.00 95 929.7
20260507010401 9 159 1.6 1.6 0.00 0.00 0.00 95 929.7
20260507010301 9 159 0.0 1.6 0.00 0.00 0.00 95 929.8
20260507010201 9 160 1.6 1.6 0.00 0.00 0.00 94 929.7
20260507010101 9 160 1.6 1.6 0.00 0.00 0.00 94 929.9
20260507010001 9 165 1.6 1.6 0.00 0.00 0.00 94 929.8
20260507005901 9 163 1.6 1.6 0.00 0.00 0.00 94 929.8
20260507005800 9 158 1.6 1.6 0.00 0.00 0.00 94 929.9
20260507005701 9 153 1.6 1.6 0.00 0.00 0.00 94 929.7
20260507005601 9 153 1.6 1.6 0.00 0.00 0.00 94 929.9
20260507005501 10 158 1.6 1.6 0.00 0.00 0.00 93 929.7
20260507005401 10 158 1.6 1.6 0.00 0.00 0.00 93 929.9
20260507005301 10 169 1.6 1.6 0.00 0.00 0.00 93 929.8
20260507005201 10 176 1.6 1.6 0.00 0.00 0.00 93 929.8
20260507005101 10 175 1.6 3.2 0.00 0.00 0.00 93 929.9
20260507005001 10 188 1.6 3.2 0.00 0.00 0.00 93 929.9
20260507004901 10 190 1.6 3.2 0.00 0.00 0.00 93 929.5
20260507004801 10 195 1.6 3.2 0.00 0.00 0.00 93 929.8
20260507004701 10 212 1.6 3.2 0.00 0.00 0.00 93 929.9
20260507004601 10 216 1.6 1.6 0.00 0.00 0.00 92 930.0
20260507004501 10 216 1.6 3.2 0.00 0.00 0.00 92 929.9
20260507004400 10 219 1.6 3.2 0.00 0.00 0.00 91 929.9
20260507004301 10 214 3.2 3.2 0.00 0.00 0.00 91 930.0
20260507004201 10 194 1.6 1.6 0.00 0.00 0.00 90 930.0
20260507004107 10 197 1.6 1.6 0.00 0.00 0.00 90 930.0
20260507004001 10 176 1.6 1.6 0.00 0.00 0.00 90 929.7
20260507003900 10 172 1.6 1.6 0.00 0.00 0.00 89 929.8
20260507003801 10 167 1.6 1.6 0.00 0.00 0.00 89 929.8
20260507003701 10 160 1.6 1.6 0.00 0.00 0.00 89 929.7
20260507003600 10 125 0.0 1.6 0.00 0.00 0.00 89 929.7
20260507003501 10 124 0.0 1.6 0.00 0.00 0.00 89 929.6
20260507003401 10 10 0.0 0.0 0.00 0.00 0.00 89 929.7
20260507003301 10 10 0.0 0.0 0.00 0.00 0.00 89 929.7
20260507003201 10 9 0.0 0.0 0.00 0.00 0.00 89 929.5
20260507003101 10 9 0.0 0.0 0.00 0.00 0.00 89 929.6
20260507003002 10 9 0.0 0.0 0.00 0.00 0.00 89 929.7
20260507002901 10 9 0.0 1.6 0.00 0.00 0.00 89 929.5
20260507002800 10 16 1.6 1.6 0.00 0.00 0.00 89 929.8
20260507002700 10 1 1.6 1.6 0.00 0.00 0.00 89 929.7
20260507002607 10 30 1.6 1.6 0.00 0.00 0.00 89 929.6
20260507002501 10 36 0.0 0.0 0.00 0.00 0.00 89 929.6
20260507002401 10 36 0.0 0.0 0.00 0.00 0.00 89 929.6
20260507002300 10 37 0.0 0.0 0.00 0.00 0.00 89 929.4
20260507002201 10 330 0.0 0.0 0.00 0.00 0.00 89 929.5
20260507002101 10 330 0.0 0.0 0.00 0.00 0.00 89 929.4
20260507002001 10 330 0.0 0.0 0.00 0.00 0.00 89 929.6
20260507001900 10 330 0.0 0.0 0.00 0.00 0.00 89 929.4
20260507001801 10 330 0.0 0.0 0.00 0.00 0.00 89 929.6
20260507001700 10 330 0.0 0.0 0.00 0.00 0.00 89 929.4
20260507001601 10 329 0.0 0.0 0.00 0.00 0.00 89 929.7
20260507001501 10 329 0.0 0.0 0.00 0.00 0.00 89 929.6
20260507001401 10 329 0.0 1.6 0.00 0.00 0.00 89 929.7
20260507001301 10 329 0.0 1.6 0.00 0.00 0.00 89 929.5
20260507001201 10 322 1.6 1.6 0.00 0.00 0.00 89 929.5
20260507001100 10 328 0.0 1.6 0.00 0.00 0.00 89 929.3
20260507001001 10 336 1.6 1.6 0.00 0.00 0.00 88 929.4
20260507000901 10 342 1.6 1.6 0.00 0.00 0.00 88 929.3
20260507000801 10 358 1.6 1.6 0.00 0.00 0.00 89 929.3
20260507000701 10 338 1.6 1.6 0.00 0.00 0.00 88 929.3
20260507000602 10 24 1.6 1.6 0.00 0.00 0.00 88 929.3
20260507000501 10 20 1.6 1.6 0.00 0.00 0.00 88 929.2
20260507000401 10 351 1.6 1.6 0.00 0.00 0.00 88 929.3
20260507000301 10 351 1.6 1.6 0.00 0.00 0.00 88 929.3
20260507000201 10 346 1.6 1.6 0.00 0.00 0.00 88 929.2
20260507000002 10 345 1.6 1.6 0.00 0.00 0.00 89 929.3
20260506235901 10 342 1.6 1.6 0.00 0.00 0.00 89 929.4
20260506235801 10 334 1.6 1.6 0.00 0.00 0.00 89 929.5
20260506235701 10 316 1.6 1.6 0.00 0.00 0.00 89 929.6
20260506235601 10 320 1.6 1.6 0.00 0.00 0.00 89 929.5
20260506235501 10 312 0.0 1.6 0.00 0.00 0.00 89 929.5
20260506235401 10 304 0.0 1.6 0.00 0.00 0.00 89 929.4
20260506235301 10 303 0.0 1.6 0.00 0.00 0.00 89 929.5
20260506235201 10 296 0.0 1.6 0.00 0.00 0.00 89 929.5
20260506235101 10 296 0.0 1.6 0.00 0.00 0.00 88 929.4
20260506235001 10 293 1.6 1.6 0.00 0.00 0.00 88 929.6
20260506234901 10 273 1.6 1.6 0.00 0.00 0.00 89 929.7
20260506234801 10 300 1.6 3.2 0.00 0.00 0.00 89 929.7
20260506234701 10 300 1.6 1.6 0.00 0.00 0.00 89 929.4
20260506234600 10 302 1.6 3.2 0.00 0.00 0.00 89 929.4
20260506234501 10 326 3.2 3.2 0.00 0.00 0.00 89 929.4
20260506234400 10 309 1.6 1.6 0.00 0.00 0.00 89 929.4
20260506234301 10 298 1.6 1.6 0.00 0.00 0.00 89 929.3
20260506234201 10 280 1.6 1.6 0.00 0.00 0.00 89 929.5
20260506234101 10 289 1.6 1.6 0.00 0.00 0.00 89 929.4
20260506234001 10 302 1.6 1.6 0.00 0.00 0.00 88 929.2
20260506233901 10 330 1.6 3.2 0.00 0.00 0.00 88 929.3
20260506233801 10 321 1.6 3.2 0.00 0.00 0.00 88 929.1
20260506233701 10 330 1.6 3.2 0.00 0.00 0.00 88 929.3
20260506233602 10 326 1.6 3.2 0.00 0.00 0.00 88 929.2
20260506233501 11 329 1.6 4.8 0.00 0.00 0.00 88 929.2
20260506233401 11 328 3.2 3.2 0.00 0.00 0.00 88 929.1
20260506233301 11 322 3.2 3.2 0.00 0.00 0.00 88 929.3
20260506233201 11 316 3.2 3.2 0.00 0.00 0.00 88 929.2
20260506233102 11 322 3.2 4.8 0.00 0.00 0.00 88 929.2
20260506233001 11 333 3.2 4.8 0.00 0.00 0.00 88 928.9
20260506232900 11 328 3.2 4.8 0.00 0.00 0.00 87 928.9
20260506232801 11 327 3.2 4.8 0.00 0.00 0.00 87 929.1
20260506232701 11 331 4.8 4.8 0.00 0.00 0.00 88 928.9
20260506232600 11 347 4.8 4.8 0.00 0.00 0.00 88 928.9
20260506232500 11 334 3.2 4.8 0.00 0.00 0.00 88 928.9
20260506232401 11 343 4.8 4.8 0.00 0.00 0.00 88 929.0
20260506232301 11 348 3.2 3.2 0.00 0.00 0.00 87 928.9
20260506232201 11 352 3.2 4.8 0.00 0.00 0.00 87 929.0
20260506232100 11 344 3.2 4.8 0.00 0.00 0.00 87 928.8
20260506232001 11 342 4.8 4.8 0.00 0.00 0.00 87 928.7
20260506231901 11 349 4.8 6.4 0.00 0.00 0.00 87 928.7
20260506231801 11 351 4.8 6.4 0.00 0.00 0.00 87 928.5
20260506231701 11 63 4.8 4.8 0.00 0.00 0.00 87 928.7
20260506231601 11 352 3.2 4.8 0.00 0.00 0.00 87 928.3
20260506231501 11 20 3.2 4.8 0.00 0.00 0.00 87 928.2
20260506231401 11 337 3.2 4.8 0.00 0.00 0.00 87 928.3
20260506231301 11 0 3.2 4.8 0.00 0.00 0.00 87 928.2
20260506231201 11 45 4.8 4.8 0.00 0.00 0.00 87 928.1
20260506231100 11 18 3.2 6.4 0.00 0.00 0.00 87 928.3
20260506231001 11 14 3.2 6.4 0.00 0.00 0.00 87 928.2
20260506230901 11 31 4.8 6.4 0.00 0.00 0.00 87 928.2
20260506230801 11 3 4.8 6.4 0.00 0.00 0.00 87 928.4
20260506230701 11 17 4.8 6.4 0.00 0.00 0.00 87 928.2
20260506230601 11 43 4.8 6.4 0.00 0.00 0.00 87 928.4
20260506230501 11 355 4.8 4.8 0.00 0.00 0.00 87 928.2
20260506230400 11 28 4.8 6.4 0.00 0.00 0.00 88 928.3
20260506230302 11 28 4.8 6.4 0.00 0.00 0.00 88 928.3
20260506230201 11 353 4.8 6.4 0.00 0.00 0.00 88 928.2
20260506230101 11 9 4.8 4.8 0.00 0.00 0.00 88 928.1
20260506230001 11 22 3.2 6.4 0.00 0.00 0.00 88 928.4
20260506225901 11 14 3.2 6.4 0.00 0.00 0.00 88 928.3
20260506225800 11 10 3.2 6.4 0.00 0.00 0.00 88 928.3
20260506225701 11 351 4.8 6.4 0.00 0.00 0.00 88 928.4
20260506225601 11 353 4.8 6.4 0.00 0.00 0.00 89 928.6
20260506225501 11 350 6.4 6.4 0.00 0.00 0.00 89 928.3
20260506225401 11 0 3.2 4.8 0.00 0.00 0.00 90 928.4
20260506225301 11 347 3.2 4.8 0.00 0.00 0.00 90 928.5
20260506225202 11 347 3.2 4.8 0.00 0.00 0.00 90 928.6
20260506225100 11 344 3.2 4.8 0.00 0.00 0.00 90 928.3
20260506225001 11 339 3.2 6.4 0.00 0.00 0.00 90 928.5
20260506224901 11 328 4.8 6.4 0.00 0.00 0.00 90 928.3
20260506224801 11 334 4.8 6.4 0.00 0.00 0.00 91 928.3
20260506224701 11 335 6.4 6.4 0.00 0.00 0.00 91 928.5
20260506224601 11 337 4.8 6.4 0.00 0.00 0.00 91 928.3
20260506224501 11 328 4.8 6.4 0.00 0.00 0.00 91 928.7
20260506224401 11 334 6.4 6.4 0.00 0.00 0.00 91 928.4
20260506224301 11 338 4.8 6.4 0.00 0.00 0.00 91 928.4
20260506224201 11 330 6.4 8.0 0.00 0.00 0.00 91 928.4
20260506224101 11 324 6.4 8.0 0.00 0.00 0.00 92 928.5
20260506224001 11 338 4.8 6.4 0.00 0.00 0.00 92 928.6
20260506223901 11 322 6.4 6.4 0.00 0.00 0.00 92 928.6
20260506223801 11 336 4.8 6.4 0.00 0.00 0.00 92 928.4
20260506223700 11 332 4.8 6.4 0.00 0.00 0.00 92 928.4
20260506223601 11 327 4.8 6.4 0.00 0.00 0.00 92 928.5
20260506223501 11 335 4.8 6.4 0.00 0.00 0.00 92 928.5
20260506223402 11 329 4.8 8.0 0.00 0.00 0.00 92 928.5
20260506223300 11 331 6.4 8.0 0.00 0.00 0.00 92 928.4
20260506223201 11 330 4.8 8.0 0.00 0.00 0.00 92 928.5
20260506223100 11 333 6.4 8.0 0.00 0.00 0.00 92 928.4
20260506223001 11 344 4.8 6.4 0.00 0.00 0.00 92 928.6
20260506222901 11 328 6.4 8.0 0.00 0.00 0.00 92 928.7
20260506222801 11 335 4.8 8.0 0.00 0.00 0.00 92 928.6
20260506222700 11 322 4.8 8.0 0.00 0.00 0.00 92 928.6
20260506222600 11 308 6.4 9.7 0.00 0.00 0.00 92 928.4
20260506222500 11 307 6.4 9.7 0.00 0.00 0.00 92 928.6
20260506222400 11 324 6.4 9.7 0.00 0.00 0.00 92 928.4
20260506222301 11 333 4.8 8.0 0.00 0.00 0.00 92 928.7
20260506222202 11 322 6.4 8.0 0.00 0.00 0.00 93 928.5
20260506222101 10 326 4.8 8.0 0.00 0.00 0.00 93 928.5
20260506222001 10 323 8.0 8.0 0.00 0.00 0.00 93 928.7
20260506221902 10 327 6.4 9.7 0.00 0.00 0.00 93 928.7
20260506221801 10 322 6.4 9.7 0.00 0.00 0.00 94 928.7
20260506221701 10 321 6.4 9.7 0.00 0.00 0.00 94 928.8
20260506221601 10 328 6.4 8.0 0.00 0.00 0.00 94 928.6
20260506221501 10 326 6.4 6.4 0.00 0.00 0.00 94 928.7
20260506221401 10 319 6.4 9.7 0.00 0.00 0.00 94 928.9
20260506221301 10 320 6.4 6.4 0.00 0.00 0.00 94 928.5
20260506221202 10 319 3.2 6.4 0.00 0.00 0.00 94 928.7
20260506221101 10 325 3.2 4.8 0.00 0.00 0.00 94 928.9
20260506221001 10 325 4.8 6.4 0.00 0.00 0.00 94 928.7
20260506220901 10 315 4.8 6.4 0.00 0.00 0.00 94 928.7
20260506220802 10 338 3.2 6.4 0.00 0.00 0.00 94 928.8
20260506220701 10 301 3.2 6.4 0.00 0.00 0.00 94 928.6
20260506220601 10 310 3.2 6.4 0.00 0.00 0.00 94 928.8
20260506220501 10 302 3.2 8.0 0.00 0.00 0.00 94 928.7
20260506220401 10 306 3.2 8.0 0.00 0.00 0.00 94 928.9
20260506220301 10 316 4.8 9.7 0.00 0.00 0.00 94 928.8
20260506220201 10 319 3.2 9.7 0.00 0.00 0.00 94 928.8
20260506220100 10 311 3.2 4.8 0.00 0.00 0.05 94 928.8
20260506220001 10 311 3.2 4.8 0.00 0.00 0.05 94 928.8
20260506215901 10 300 3.2 4.8 0.00 0.00 0.05 94 928.8
20260506215801 10 305 3.2 4.8 0.00 0.00 0.05 94 928.8
20260506215702 10 306 1.6 4.8 0.00 0.00 0.05 94 928.7
20260506215600 10 301 3.2 4.8 0.00 0.00 0.05 94 928.8
20260506215501 10 308 3.2 6.4 0.00 0.00 0.05 94 928.8
20260506215401 10 314 4.8 6.4 0.00 0.00 0.05 94 928.9
20260506215301 10 311 3.2 3.2 0.00 0.00 0.05 94 928.9
20260506215201 10 310 1.6 3.2 0.00 0.00 0.05 94 928.8
20260506215101 10 306 3.2 4.8 0.00 0.00 0.05 94 928.8
20260506215000 10 278 3.2 9.7 0.00 0.00 0.05 94 928.9
20260506214901 10 304 6.4 9.7 0.00 0.00 0.05 93 928.9
20260506214801 10 305 3.2 6.4 0.00 0.00 0.05 93 928.9
20260506214702 10 310 3.2 6.4 0.00 0.00 0.05 93 928.5
20260506214601 10 298 3.2 4.8 0.00 0.00 0.05 93 928.7
20260506214501 10 297 3.2 4.8 0.00 0.00 0.05 92 928.7
20260506214401 10 306 3.2 4.8 0.00 0.00 0.05 92 928.9
20260506214301 10 295 3.2 4.8 0.00 0.00 0.05 92 928.8
20260506214201 10 280 3.2 4.8 0.00 0.00 0.05 92 928.8
20260506214101 10 308 3.2 4.8 0.00 0.00 0.05 92 928.9
20260506214001 10 283 1.6 3.2 0.00 0.00 0.05 92 928.8
20260506213901 10 300 3.2 3.2 0.00 0.00 0.05 91 928.8
20260506213801 10 296 3.2 4.8 0.00 0.00 0.05 91 928.7
20260506213701 10 291 3.2 4.8 0.00 0.00 0.05 91 928.6
20260506213601 10 285 3.2 4.8 0.00 0.00 0.05 91 928.6
20260506213502 10 288 3.2 4.8 0.00 0.00 0.05 92 928.7
20260506213401 10 276 3.2 4.8 0.00 0.00 0.05 91 928.7
20260506213301 10 300 3.2 4.8 0.00 0.00 0.05 91 928.6
20260506213201 10 292 1.6 3.2 0.00 0.00 0.05 91 928.6
20260506213101 10 278 1.6 3.2 0.00 0.00 0.05 91 928.5
20260506213001 10 276 1.6 1.6 0.00 0.00 0.05 91 928.5
20260506212901 10 271 1.6 1.6 0.00 0.00 0.05 90 928.4
20260506212801 10 293 1.6 1.6 0.00 0.00 0.05 90 928.4
20260506212701 10 309 1.6 1.6 0.00 0.00 0.05 90 928.0
20260506212602 10 317 1.6 3.2 0.00 0.00 0.05 90 928.0
20260506212501 10 320 1.6 3.2 0.00 0.00 0.05 90 928.1
20260506212401 10 325 1.6 3.2 0.00 0.00 0.05 90 927.9
20260506212301 10 325 3.2 3.2 0.00 0.00 0.05 91 927.7
20260506212201 10 328 3.2 3.2 0.00 0.00 0.05 90 928.0
20260506212101 10 328 3.2 3.2 0.00 0.00 0.05 90 927.8
20260506212001 10 326 3.2 3.2 0.00 0.00 0.05 90 927.8
20260506211901 10 323 3.2 3.2 0.00 0.00 0.05 90 927.6
20260506211801 11 340 3.2 3.2 0.00 0.00 0.05 89 927.5
20260506211701 11 333 3.2 3.2 0.00 0.00 0.05 89 927.5
20260506211601 11 346 3.2 3.2 0.00 0.00 0.05 89 927.6
20260506211201 11 18 3.2 3.2 0.00 0.00 0.05 89 927.4
20260506211101 11 40 1.6 3.2 0.00 0.00 0.05 89 927.2
20260506211001 11 37 1.6 3.2 0.00 0.00 0.05 89 927.1
20260506210901 11 45 3.2 3.2 0.00 0.00 0.05 89 927.3
20260506210801 11 49 3.2 4.8 0.00 0.00 0.05 89 927.1
20260506210700 11 48 3.2 4.8 0.00 0.00 0.05 89 927.3
20260506210601 11 68 1.6 3.2 0.00 0.00 0.05 89 927.4
20260506210501 11 57 3.2 3.2 0.00 0.00 0.05 88 927.1
20260506210402 11 50 3.2 3.2 0.00 0.00 0.05 88 927.3
20260506210301 11 65 1.6 3.2 0.00 0.00 0.05 88 927.2
20260506210201 11 58 1.6 3.2 0.00 0.00 0.05 88 927.1
20260506210001 11 82 1.6 3.2 0.00 0.00 0.05 88 927.2
20260506205901 11 54 1.6 3.2 0.00 0.00 0.05 88 927.2
20260506205801 11 72 1.6 3.2 0.00 0.00 0.05 88 927.2
20260506205700 11 66 1.6 3.2 0.00 0.00 0.05 88 927.1
20260506205601 11 56 1.6 3.2 0.00 0.00 0.05 88 927.3
20260506205501 11 71 1.6 3.2 0.00 0.00 0.05 88 927.1
20260506205400 11 49 1.6 3.2 0.00 0.00 0.05 88 927.2
20260506205305 11 82 1.6 3.2 0.00 0.00 0.05 88 927.2
20260506205201 11 69 1.6 3.2 0.00 0.00 0.05 88 927.2
20260506205100 11 91 1.6 3.2 0.00 0.00 0.05 88 927.0
20260506205001 11 65 3.2 4.8 0.00 0.00 0.05 88 927.2
20260506204901 11 75 3.2 4.8 0.00 0.00 0.05 88 927.2
20260506204801 11 60 3.2 4.8 0.00 0.00 0.05 88 927.1
20260506204701 11 56 3.2 4.8 0.00 0.00 0.05 88 927.3
20260506204602 11 60 1.6 3.2 0.00 0.00 0.05 89 927.3
20260506204501 11 58 3.2 3.2 0.00 0.00 0.05 88 927.1
20260506204401 11 43 3.2 3.2 0.00 0.00 0.05 88 927.0
20260506204301 11 75 1.6 4.8 0.00 0.00 0.05 88 927.4
20260506204200 11 37 3.2 3.2 0.00 0.00 0.05 88 927.3
20260506204101 11 56 3.2 4.8 0.00 0.00 0.05 88 927.4
20260506204001 11 59 3.2 4.8 0.00 0.00 0.05 88 927.4
20260506203901 11 53 3.2 4.8 0.00 0.00 0.05 88 927.2
20260506203801 11 55 3.2 4.8 0.00 0.00 0.05 87 927.0
20260506203701 11 48 3.2 4.8 0.00 0.00 0.05 87 927.1
20260506203600 11 42 3.2 4.8 0.00 0.00 0.05 87 927.3
20260506203501 11 42 3.2 6.4 0.00 0.00 0.05 87 927.2
20260506203401 11 41 4.8 6.4 0.00 0.00 0.05 88 927.0
20260506203301 11 55 4.8 4.8 0.00 0.00 0.05 88 927.1
20260506203201 11 46 4.8 4.8 0.00 0.00 0.05 88 927.1
20260506203101 11 44 3.2 6.4 0.00 0.00 0.05 88 927.1
20260506203001 11 56 3.2 4.8 0.00 0.00 0.05 88 927.2
20260506202901 11 16 3.2 4.8 0.00 0.00 0.05 88 927.0
20260506202801 11 69 3.2 4.8 0.00 0.00 0.05 88 927.2
20260506202700 11 59 3.2 4.8 0.00 0.00 0.05 88 927.5
20260506202601 11 66 3.2 4.8 0.00 0.00 0.05 88 927.3
20260506202502 11 66 3.2 4.8 0.00 0.00 0.05 88 927.4
20260506202401 11 102 3.2 4.8 0.00 0.00 0.05 88 927.2
20260506202301 11 44 4.8 4.8 0.00 0.00 0.05 87 927.1
20260506202201 11 60 3.2 4.8 0.00 0.00 0.05 87 927.4
20260506202101 11 62 3.2 4.8 0.00 0.00 0.05 87 927.1
20260506202000 11 56 1.6 4.8 0.00 0.00 0.05 87 927.4
20260506201901 11 81 1.6 3.2 0.00 0.00 0.05 87 927.4
20260506201801 11 70 1.6 4.8 0.00 0.00 0.05 86 927.3
20260506201701 11 47 3.2 4.8 0.00 0.00 0.05 86 927.3
20260506201601 11 55 3.2 3.2 0.00 0.00 0.05 86 927.3
20260506201501 11 35 3.2 4.8 0.00 0.00 0.05 86 927.5
20260506201401 11 58 3.2 4.8 0.00 0.00 0.05 86 927.5
20260506201301 11 58 1.6 4.8 0.00 0.00 0.05 86 927.3
20260506201201 11 57 3.2 4.8 0.00 0.00 0.05 86 927.3
20260506201102 11 51 3.2 4.8 0.00 0.00 0.05 86 927.3
20260506201001 11 46 4.8 4.8 0.00 0.00 0.05 86 927.3
20260506200901 11 5 3.2 4.8 0.00 0.00 0.05 86 927.2
20260506200801 11 37 4.8 4.8 0.00 0.00 0.05 86 927.4
20260506200701 11 39 3.2 6.4 0.00 0.00 0.05 86 927.1
20260506200601 11 65 4.8 6.4 0.00 0.00 0.05 86 927.5
20260506200501 11 44 4.8 6.4 0.00 0.00 0.05 87 927.4
20260506200401 11 21 3.2 6.4 0.00 0.00 0.05 87 927.2
20260506200301 11 35 3.2 6.4 0.00 0.00 0.05 87 927.3
20260506200201 11 352 4.8 6.4 0.00 0.00 0.05 87 927.4
20260506200101 11 37 4.8 6.4 0.00 0.00 0.05 87 927.3
20260506200001 11 44 4.8 6.4 0.00 0.00 0.05 87 927.3
20260506195901 11 44 4.8 6.4 0.00 0.00 0.05 87 927.3
20260506195801 11 11 4.8 4.8 0.00 0.00 0.05 87 927.3
20260506195701 11 44 4.8 4.8 0.00 0.00 0.05 86 927.5
20260506195601 11 59 4.8 6.4 0.00 0.00 0.05 86 927.4
20260506195501 11 38 4.8 6.4 0.00 0.00 0.05 86 927.3
20260506195401 11 44 3.2 6.4 0.00 0.00 0.05 86 927.4
20260506195300 11 43 3.2 6.4 0.00 0.00 0.05 86 927.6
20260506195200 11 50 4.8 6.4 0.00 0.00 0.05 86 927.4
20260506195101 11 35 4.8 8.0 0.00 0.00 0.05 86 927.5
20260506195001 11 50 6.4 8.0 0.00 0.00 0.05 86 927.3
20260506194901 11 14 4.8 6.4 0.00 0.00 0.05 85 927.5
20260506194800 11 56 6.4 6.4 0.00 0.00 0.05 85 927.5
20260506194701 11 42 3.2 6.4 0.00 0.00 0.05 85 927.7
20260506194600 11 46 4.8 6.4 0.00 0.00 0.05 85 927.5
20260506194501 11 18 4.8 6.4 0.00 0.00 0.05 85 927.4
20260506194401 11 35 4.8 8.0 0.00 0.00 0.05 85 927.6
20260506194300 11 30 6.4 8.0 0.00 0.00 0.05 85 927.5
20260506194201 11 48 4.8 6.4 0.00 0.00 0.05 85 927.6
20260506194101 11 2 4.8 6.4 0.00 0.00 0.05 85 927.5
20260506194001 11 55 3.2 6.4 0.00 0.00 0.05 85 927.3
20260506193901 11 36 4.8 6.4 0.00 0.00 0.05 85 927.2
20260506193801 11 41 4.8 8.0 0.00 0.00 0.05 85 927.5
20260506193701 11 11 6.4 8.0 0.00 0.00 0.05 84 927.4
20260506193601 11 47 6.4 9.7 0.00 0.00 0.05 84 927.5
20260506193501 11 41 4.8 9.7 0.00 0.00 0.05 84 927.6
20260506193400 11 25 6.4 8.0 0.00 0.00 0.05 85 927.4
20260506193300 11 69 3.2 6.4 0.00 0.00 0.05 86 927.4
20260506193201 11 30 4.8 8.0 0.00 0.00 0.05 86 927.5
20260506193101 11 50 4.8 8.0 0.00 0.00 0.05 86 927.1
20260506193001 11 34 4.8 6.4 0.00 0.00 0.05 86 927.4
20260506192901 11 35 4.8 6.4 0.00 0.00 0.05 87 927.6
20260506192801 11 16 6.4 6.4 0.00 0.00 0.05 87 927.4
20260506192701 11 46 4.8 6.4 0.00 0.00 0.05 88 927.5
20260506192601 11 34 4.8 4.8 0.00 0.00 0.05 88 927.6
20260506192501 11 35 4.8 8.0 0.00 0.00 0.05 88 927.6
20260506192401 11 34 6.4 8.0 0.00 0.00 0.05 88 927.3
20260506192300 11 27 6.4 6.4 0.00 0.00 0.05 88 927.6
20260506192201 11 68 4.8 6.4 0.00 0.00 0.05 88 927.5
20260506192101 11 26 6.4 6.4 0.00 0.00 0.05 88 927.5
20260506192001 12 23 6.4 6.4 0.00 0.00 0.05 88 927.3
20260506191901 12 30 6.4 9.7 0.00 0.00 0.05 88 927.4
20260506191801 12 32 8.0 9.7 0.00 0.00 0.05 89 927.4
20260506191701 12 37 6.4 8.0 0.00 0.00 0.05 89 927.4
20260506191601 12 54 4.8 8.0 0.00 0.00 0.05 89 927.3
20260506191501 12 33 6.4 8.0 0.00 0.00 0.05 89 927.2
20260506191401 12 24 4.8 8.0 0.00 0.00 0.05 89 927.2
20260506191301 12 2 3.2 6.4 0.00 0.00 0.05 89 927.3
20260506191102 11 33 4.8 8.0 0.00 0.00 0.05 90 927.3
20260506190902 11 24 3.2 6.4 0.00 0.00 0.05 91 927.4
20260506190701 11 31 4.8 6.4 0.00 0.00 0.05 92 927.4
20260506190601 11 48 4.8 6.4 0.00 0.00 0.05 92 927.5
20260506190501 11 41 4.8 8.0 0.00 0.00 0.05 92 927.4
20260506190401 11 21 4.8 8.0 0.00 0.00 0.05 93 927.4
20260506190301 11 47 4.8 6.4 0.00 0.00 0.05 92 927.5
20260506190201 11 27 4.8 6.4 0.00 0.00 0.05 92 927.5
20260506190101 11 27 4.8 6.4 0.00 0.00 0.05 92 927.2
20260506190001 11 39 6.4 8.0 0.00 0.00 0.05 93 927.6
20260506185901 11 49 4.8 8.0 0.00 0.00 0.05 93 927.5
20260506185801 11 49 4.8 8.0 0.00 0.00 0.05 93 927.5
20260506185701 11 34 6.4 8.0 0.00 0.00 0.05 93 927.4
20260506185601 11 17 3.2 6.4 0.00 0.00 0.05 93 927.6
20260506185501 11 37 4.8 6.4 0.00 0.00 0.05 93 927.6
20260506185401 11 29 4.8 6.4 0.00 0.00 0.05 93 927.5
20260506185301 12 27 4.8 8.0 0.00 0.00 0.05 93 927.4
20260506185201 12 16 4.8 4.8 0.00 0.00 0.05 94 927.2
20260506185101 12 9 4.8 6.4 0.00 0.00 0.05 94 927.5
20260506185002 12 340 6.4 8.0 0.00 0.00 0.05 94 927.7
20260506184901 12 346 4.8 6.4 0.00 0.00 0.05 94 927.4
20260506184801 12 20 3.2 6.4 0.00 0.00 0.05 94 927.4
20260506184702 12 4 4.8 6.4 0.00 0.00 0.05 94 927.5
20260506184600 12 26 4.8 6.4 0.00 0.00 0.05 94 927.5
20260506184501 12 14 6.4 6.4 0.00 0.00 0.05 94 927.5
20260506184401 12 352 4.8 6.4 0.00 0.00 0.05 94 927.5
20260506184301 12 29 4.8 4.8 0.00 0.00 0.05 94 927.2
20260506184201 12 354 4.8 4.8 0.00 0.00 0.05 94 927.3
20260506184101 12 339 4.8 4.8 0.00 0.00 0.05 94 927.3
20260506184001 12 8 4.8 6.4 0.00 0.00 0.05 93 927.2
20260506183901 12 353 4.8 6.4 0.00 0.00 0.05 93 927.4
20260506183801 12 355 4.8 6.4 0.00 0.00 0.05 93 927.4
20260506183701 12 31 4.8 6.4 0.00 0.00 0.05 93 927.4
20260506183600 12 344 4.8 6.4 0.00 0.00 0.05 93 927.4
20260506183500 12 359 4.8 8.0 0.00 0.00 0.05 93 927.4
20260506183400 12 12 6.4 8.0 0.00 0.00 0.05 93 927.4
20260506183301 12 8 4.8 6.4 0.00 0.00 0.05 94 927.3
20260506183201 12 353 4.8 6.4 0.00 0.00 0.05 94 927.4
20260506183101 12 6 4.8 6.4 0.00 0.00 0.05 94 927.3
20260506183002 12 34 4.8 6.4 0.00 0.00 0.05 94 927.2
20260506182901 12 359 4.8 4.8 0.00 0.00 0.05 94 927.3
20260506182801 12 30 4.8 6.4 0.00 0.00 0.05 94 927.5
20260506182701 12 21 4.8 6.4 0.00 0.00 0.05 94 927.4
20260506182601 12 15 4.8 6.4 0.00 0.00 0.05 94 927.4
20260506182501 12 64 4.8 4.8 0.00 0.00 0.05 94 927.3
20260506182401 12 12 4.8 6.4 0.00 0.00 0.05 94 927.4
20260506182301 12 33 4.8 4.8 0.00 0.00 0.05 94 927.5
20260506182201 12 350 4.8 6.4 0.00 0.00 0.05 93 927.4
20260506182101 12 29 4.8 6.4 0.00 0.00 0.05 93 927.3
20260506182001 12 8 4.8 4.8 0.00 0.00 0.05 93 927.3
20260506181901 12 6 3.2 4.8 0.00 0.00 0.05 93 927.6
20260506181801 12 351 4.8 4.8 0.00 0.00 0.05 93 927.4
20260506181701 12 9 4.8 4.8 0.00 0.00 0.05 93 927.4
20260506181601 12 20 4.8 6.4 0.00 0.00 0.05 93 927.3
20260506181500 12 22 4.8 6.4 0.00 0.00 0.05 93 927.4
20260506181401 12 13 4.8 6.4 0.00 0.00 0.05 93 927.3
20260506181301 12 349 4.8 6.4 0.00 0.00 0.05 93 927.4
20260506181201 12 17 3.2 6.4 0.00 0.00 0.05 93 927.4
20260506181101 12 36 4.8 4.8 0.00 0.00 0.05 93 927.2
20260506181001 12 33 4.8 4.8 0.00 0.00 0.05 93 927.3
20260506180901 12 45 3.2 4.8 0.00 0.00 0.05 93 927.3
20260506180802 12 26 4.8 6.4 0.00 0.00 0.05 93 927.2
20260506180701 12 16 4.8 6.4 0.00 0.00 0.05 93 927.0
20260506180601 12 295 4.8 4.8 0.00 0.00 0.05 93 927.2
20260506180501 12 29 4.8 6.4 0.00 0.00 0.05 93 927.2
20260506180401 12 28 4.8 6.4 0.00 0.00 0.05 93 927.3
20260506180301 12 0 3.2 4.8 0.00 0.00 0.05 93 927.2
20260506180201 12 15 3.2 4.8 0.00 0.00 0.05 93 927.3
20260506180100 12 12 4.8 6.4 0.00 0.00 0.05 93 927.2
20260506180001 12 6 4.8 4.8 0.00 0.00 0.05 93 927.5
20260506175901 12 13 3.2 4.8 0.00 0.00 0.05 93 927.2
20260506175801 12 28 4.8 4.8 0.00 0.00 0.05 93 927.3
20260506175701 12 28 4.8 4.8 0.00 0.00 0.05 93 927.3
20260506175605 12 1 3.2 6.4 0.00 0.00 0.05 93 927.4
20260506175501 12 24 3.2 6.4 0.00 0.00 0.05 93 927.4
20260506175401 12 22 4.8 6.4 0.00 0.00 0.05 93 927.4
20260506175307 12 2 3.2 6.4 0.00 0.00 0.05 93 927.2
20260506175201 12 16 4.8 4.8 0.00 0.00 0.05 93 927.3
20260506175100 12 2 3.2 6.4 0.00 0.00 0.05 93 927.2
20260506175001 12 5 4.8 6.4 0.00 0.00 0.05 93 927.2
20260506174901 12 350 4.8 6.4 0.00 0.00 0.05 93 927.1
20260506174801 12 33 3.2 6.4 0.00 0.00 0.05 92 927.3
20260506174701 12 9 4.8 4.8 0.00 0.00 0.05 92 926.9
20260506174601 12 25 4.8 4.8 0.00 0.00 0.05 92 927.1
20260506174501 12 4 3.2 4.8 0.00 0.00 0.05 91 927.2
20260506174401 12 353 3.2 4.8 0.00 0.00 0.05 91 927.2
20260506174300 12 353 3.2 4.8 0.00 0.00 0.05 91 927.5
20260506174201 12 352 3.2 6.4 0.00 0.00 0.05 90 927.2
20260506174101 12 338 4.8 6.4 0.00 0.00 0.05 90 927.1
20260506174001 12 349 6.4 8.0 0.00 0.00 0.05 89 927.2
20260506173901 12 325 6.4 8.0 0.00 0.00 0.05 89 927.2
20260506173801 12 337 4.8 8.0 0.00 0.00 0.05 88 927.2
20260506173702 12 345 8.0 8.0 0.00 0.00 0.05 88 927.2
20260506173601 12 335 6.4 8.0 0.00 0.00 0.05 88 927.1
20260506173501 12 334 6.4 6.4 0.00 0.00 0.05 87 927.3
20260506173401 12 321 4.8 4.8 0.00 0.00 0.05 87 927.1
20260506173301 12 335 4.8 4.8 0.00 0.00 0.05 86 927.0
20260506173206 13 351 3.2 4.8 0.00 0.00 0.05 86 927.2
20260506173101 13 349 3.2 4.8 0.00 0.00 0.05 86 927.2
20260506173001 13 349 3.2 3.2 0.00 0.00 0.05 85 927.1
20260506172901 13 345 3.2 3.2 0.00 0.00 0.05 85 927.0
20260506172800 13 331 3.2 3.2 0.00 0.00 0.05 85 927.1
20260506172701 13 340 3.2 3.2 0.00 0.00 0.05 85 927.0
20260506172601 13 342 3.2 3.2 0.00 0.00 0.05 85 926.8
20260506172501 13 344 1.6 3.2 0.00 0.00 0.05 84 926.9
20260506172401 13 353 1.6 3.2 0.00 0.00 0.05 84 926.9
20260506172301 13 4 3.2 3.2 0.00 0.00 0.05 83 926.7
20260506172201 13 17 1.6 3.2 0.00 0.00 0.05 83 926.8
20260506172101 13 23 3.2 3.2 0.00 0.00 0.05 83 927.0
20260506172001 13 4 1.6 3.2 0.00 0.00 0.05 83 927.0
20260506171901 13 21 1.6 3.2 0.00 0.00 0.05 82 926.8
20260506171802 13 7 1.6 3.2 0.00 0.00 0.05 82 927.1
20260506171701 13 18 3.2 3.2 0.00 0.00 0.05 82 926.8
20260506171601 13 14 1.6 3.2 0.00 0.00 0.05 82 927.0
20260506171501 13 19 1.6 3.2 0.00 0.00 0.05 82 926.9
20260506171400 13 35 1.6 3.2 0.00 0.00 0.05 82 926.9
20260506171301 13 47 1.6 3.2 0.00 0.00 0.05 81 927.0
20260506171202 13 27 1.6 3.2 0.00 0.00 0.05 82 927.0
20260506171102 13 7 1.6 3.2 0.00 0.00 0.05 81 926.8
20260506171001 13 52 1.6 1.6 0.00 0.00 0.05 81 927.0
20260506170905 13 37 1.6 1.6 0.00 0.00 0.05 81 926.8
20260506170801 13 24 1.6 3.2 0.00 0.00 0.05 81 926.7
20260506170701 13 35 3.2 3.2 0.00 0.00 0.05 81 926.7
20260506170601 13 34 3.2 3.2 0.00 0.00 0.05 81 927.0
20260506170501 13 43 1.6 3.2 0.00 0.00 0.05 81 926.9
20260506170401 13 45 1.6 3.2 0.00 0.00 0.05 81 926.8
20260506170301 13 42 3.2 3.2 0.00 0.00 0.05 81 926.9
20260506170201 13 11 3.2 3.2 0.00 0.00 0.05 81 926.9
20260506170001 13 37 3.2 3.2 0.00 0.00 0.05 81 926.9
20260506165901 13 35 3.2 4.8 0.00 0.00 0.05 81 926.9
20260506165800 13 24 3.2 4.8 0.00 0.00 0.05 80 926.7
20260506165701 13 24 3.2 4.8 0.00 0.00 0.05 80 926.7
20260506165601 13 23 1.6 4.8 0.00 0.00 0.05 81 926.7
20260506165501 13 42 3.2 3.2 0.00 0.00 0.05 80 926.8
20260506165401 14 31 3.2 4.8 0.00 0.00 0.05 80 926.8
20260506165301 14 19 3.2 4.8 0.00 0.00 0.05 80 926.9
20260506165201 14 12 1.6 3.2 0.00 0.00 0.05 80 926.7
20260506165101 14 42 1.6 3.2 0.00 0.00 0.05 80 927.1
20260506165001 14 29 3.2 3.2 0.00 0.00 0.05 80 926.9
20260506164901 14 42 1.6 3.2 0.00 0.00 0.05 80 926.9
20260506164801 14 359 3.2 4.8 0.00 0.00 0.05 80 926.9
20260506164701 14 39 3.2 3.2 0.00 0.00 0.05 79 926.7
20260506164601 14 41 1.6 3.2 0.00 0.00 0.05 80 926.8
20260506164501 14 41 1.6 3.2 0.00 0.00 0.05 80 926.7
20260506164401 14 32 1.6 3.2 0.00 0.00 0.05 80 926.9
20260506164301 14 15 1.6 3.2 0.00 0.00 0.05 80 927.0
20260506164201 14 31 3.2 4.8 0.00 0.00 0.05 80 926.8
20260506164101 14 53 1.6 3.2 0.00 0.00 0.05 81 926.8
20260506164002 14 38 3.2 4.8 0.00 0.00 0.05 81 927.0
20260506163901 14 25 3.2 4.8 0.00 0.00 0.05 81 926.9
20260506163801 14 39 3.2 4.8 0.00 0.00 0.05 81 926.8
20260506163701 14 18 3.2 3.2 0.00 0.00 0.05 81 926.9
20260506163601 14 41 3.2 4.8 0.00 0.00 0.05 81 927.0
20260506163501 14 42 3.2 4.8 0.00 0.00 0.05 80 926.9
20260506163401 14 26 1.6 3.2 0.00 0.00 0.05 81 927.0
20260506163301 14 42 1.6 3.2 0.00 0.00 0.05 82 927.0
20260506163202 14 31 1.6 4.8 0.00 0.00 0.05 82 926.9
20260506163101 14 34 3.2 4.8 0.00 0.00 0.05 81 926.9
20260506163001 14 44 1.6 3.2 0.00 0.00 0.05 82 927.0
20260506162901 14 39 1.6 3.2 0.00 0.00 0.05 83 926.9
20260506162801 14 43 3.2 3.2 0.00 0.00 0.05 82 927.0
20260506162701 14 40 3.2 3.2 0.00 0.00 0.05 84 926.9
20260506162601 14 20 1.6 3.2 0.00 0.00 0.05 85 926.9
20260506162501 14 25 3.2 3.2 0.00 0.00 0.05 85 926.7
20260506162401 14 14 1.6 3.2 0.00 0.00 0.05 85 926.9
20260506162301 14 7 1.6 3.2 0.00 0.00 0.05 85 927.0
20260506162201 14 353 1.6 3.2 0.00 0.00 0.05 85 927.0
20260506162101 14 358 1.6 3.2 0.00 0.00 0.05 85 927.1
20260506162001 14 355 1.6 3.2 0.00 0.00 0.05 85 927.0
20260506161901 14 14 1.6 3.2 0.00 0.00 0.05 83 927.1
20260506161802 14 359 1.6 3.2 0.00 0.00 0.05 83 927.2
20260506161701 14 40 1.6 3.2 0.00 0.00 0.05 82 927.1
20260506161601 14 349 1.6 3.2 0.00 0.00 0.05 81 926.9
20260506161500 14 9 3.2 3.2 0.00 0.00 0.05 80 926.9
20260506161401 14 21 3.2 4.8 0.00 0.00 0.05 80 927.0
20260506161301 14 42 1.6 3.2 0.00 0.00 0.05 80 927.0
20260506161201 14 32 1.6 3.2 0.00 0.00 0.05 81 927.2
20260506161101 14 354 1.6 3.2 0.00 0.00 0.05 82 927.2
20260506161001 14 22 1.6 3.2 0.00 0.00 0.05 82 927.2
20260506160901 14 2 3.2 3.2 0.00 0.00 0.05 81 927.1
20260506160800 14 358 3.2 3.2 0.00 0.00 0.05 83 927.2
20260506160701 14 346 1.6 3.2 0.00 0.00 0.05 83 927.4
20260506160602 14 347 1.6 3.2 0.00 0.00 0.05 82 927.3
20260506160404 14 356 1.6 3.2 0.00 0.00 0.05 83 927.3
20260506160301 14 344 1.6 3.2 0.00 0.00 0.05 82 927.2
20260506160207 14 325 1.6 3.2 0.00 0.00 0.05 82 927.2
20260506160106 14 345 1.6 3.2 0.00 0.00 0.05 82 927.4
20260506160002 14 321 3.2 3.2 0.00 0.00 0.05 82 927.4
20260506155901 14 337 1.6 3.2 0.00 0.00 0.05 82 927.4
20260506155800 14 331 3.2 3.2 0.00 0.00 0.05 82 927.3
20260506155701 14 332 3.2 3.2 0.00 0.00 0.05 81 927.4
20260506155601 14 332 3.2 3.2 0.00 0.00 0.05 81 927.4
20260506155501 14 4 1.6 3.2 0.00 0.00 0.05 81 927.3
20260506155401 14 4 1.6 3.2 0.00 0.00 0.05 80 927.3
20260506155301 14 26 1.6 4.8 0.00 0.00 0.05 80 927.4
20260506155201 14 1 3.2 4.8 0.00 0.00 0.05 81 927.1
20260506155101 14 1 3.2 4.8 0.00 0.00 0.05 79 927.3
20260506155001 14 27 4.8 4.8 0.00 0.00 0.05 80 927.2
20260506154901 14 24 1.6 3.2 0.00 0.00 0.05 81 927.3
20260506154801 14 34 1.6 3.2 0.00 0.00 0.05 80 927.2
20260506154703 14 42 3.2 3.2 0.00 0.00 0.05 80 927.3
20260506154601 14 49 3.2 3.2 0.00 0.00 0.05 81 927.4
20260506154501 14 358 1.6 4.8 0.00 0.00 0.05 80 927.2
20260506154401 14 29 3.2 4.8 0.00 0.00 0.05 80 927.1
20260506154301 14 5 3.2 4.8 0.00 0.00 0.05 80 927.4
20260506154201 14 47 3.2 4.8 0.00 0.00 0.05 80 927.5
20260506154101 14 31 3.2 4.8 0.00 0.00 0.05 79 927.4
20260506154001 14 38 3.2 4.8 0.00 0.00 0.05 80 927.4
20260506153902 14 14 3.2 4.8 0.00 0.00 0.05 79 927.3
20260506153801 14 21 4.8 4.8 0.00 0.00 0.05 79 927.4
20260506153701 14 33 3.2 4.8 0.00 0.00 0.05 79 927.6
20260506153601 14 62 3.2 3.2 0.00 0.00 0.05 79 927.7
20260506153501 14 28 1.6 4.8 0.00 0.00 0.05 79 927.5
20260506153400 14 30 3.2 4.8 0.00 0.00 0.05 78 927.5
20260506153301 14 3 3.2 3.2 0.00 0.00 0.05 80 927.4
20260506153201 14 19 1.6 3.2 0.00 0.00 0.05 80 927.7
20260506153101 14 349 3.2 3.2 0.00 0.00 0.05 77 927.6
20260506153001 14 21 3.2 3.2 0.00 0.00 0.05 81 927.8
20260506152901 14 359 3.2 3.2 0.00 0.00 0.05 78 927.6
20260506152801 14 353 1.6 1.6 0.00 0.00 0.05 77 927.8
20260506152701 14 354 1.6 1.6 0.00 0.00 0.05 77 927.6
20260506152602 13 350 1.6 1.6 0.00 0.00 0.05 78 927.6
20260506152501 13 334 1.6 1.6 0.00 0.00 0.05 78 927.8
20260506152401 13 328 1.6 1.6 0.00 0.00 0.05 77 927.9
20260506152305 13 325 1.6 1.6 0.00 0.00 0.05 78 928.0
20260506152201 13 336 1.6 1.6 0.00 0.00 0.05 80 927.9
20260506152101 14 354 1.6 1.6 0.00 0.00 0.05 80 927.9
20260506152002 14 10 1.6 3.2 0.00 0.00 0.05 78 927.7
20260506151901 13 357 1.6 3.2 0.00 0.00 0.05 77 927.8
20260506151801 13 342 1.6 3.2 0.00 0.00 0.05 76 927.7
20260506151700 13 338 1.6 3.2 0.00 0.00 0.05 76 927.6
20260506151601 13 332 1.6 3.2 0.00 0.00 0.05 77 927.6
20260506151502 13 342 1.6 3.2 0.00 0.00 0.05 77 927.8
20260506151401 14 331 3.2 4.8 0.00 0.00 0.05 77 927.5
20260506151301 14 329 3.2 4.8 0.00 0.00 0.05 76 927.6
20260506151201 14 339 3.2 4.8 0.00 0.00 0.05 75 927.7
20260506151105 14 331 3.2 4.8 0.00 0.00 0.05 75 927.9
20260506151001 14 330 3.2 4.8 0.00 0.00 0.05 75 927.8
20260506150901 14 347 4.8 4.8 0.00 0.00 0.05 73 927.7
20260506150801 15 343 3.2 4.8 0.00 0.00 0.05 74 927.7
20260506150701 15 343 3.2 3.2 0.00 0.00 0.05 76 927.8
20260506150601 14 47 3.2 3.2 0.00 0.00 0.05 73 927.7
20260506150501 14 41 1.6 3.2 0.00 0.00 0.05 72 927.8
20260506150401 14 23 0.0 4.8 0.00 0.00 0.05 72 927.7
20260506150304 14 330 3.2 4.8 0.00 0.00 0.05 72 927.8
20260506150201 14 338 4.8 4.8 0.00 0.00 0.05 76 927.7
20260506150101 13 13 4.8 4.8 0.00 0.00 0.05 77 927.7
20260506150002 13 350 4.8 4.8 0.00 0.00 0.05 78 927.8
20260506145901 14 342 4.8 6.4 0.00 0.00 0.03 78 927.8
20260506145801 14 347 3.2 4.8 0.00 0.00 0.03 79 928.0
20260506145701 14 326 3.2 4.8 0.00 0.00 0.03 78 927.9
20260506145602 14 311 3.2 4.8 0.00 0.00 0.03 78 927.9
20260506145500 14 322 4.8 4.8 0.00 0.00 0.03 76 927.9
20260506145401 14 322 4.8 4.8 0.00 0.00 0.03 76 927.9
20260506145305 15 307 3.2 4.8 0.00 0.00 0.03 75 927.9
20260506145201 15 313 3.2 4.8 0.00 0.00 0.03 75 928.1
20260506145101 15 327 3.2 3.2 0.00 0.00 0.03 74 928.0
20260506145001 15 303 1.6 1.6 0.00 0.00 0.03 71 928.3
20260506144901 16 305 1.6 1.6 0.00 0.00 0.03 70 928.1
20260506144800 16 303 1.6 3.2 0.00 0.00 0.03 68 928.2
20260506144702 16 300 3.2 3.2 0.00 0.00 0.03 66 928.2
20260506144602 17 305 1.6 1.6 0.00 0.00 0.03 65 928.1
20260506144501 17 316 1.6 1.6 0.00 0.00 0.03 62 928.4
20260506144400 17 284 1.6 1.6 0.00 0.00 0.03 61 927.9
20260506144301 17 131 0.0 0.0 0.00 0.00 0.03 60 928.2
20260506144201 17 130 0.0 0.0 0.00 0.00 0.03 61 928.1
20260506144101 17 130 0.0 0.0 0.00 0.00 0.03 59 928.2
20260506144001 17 130 0.0 0.0 0.00 0.00 0.03 59 928.1
20260506143901 17 130 0.0 0.0 0.00 0.00 0.03 60 928.3
20260506143801 17 130 0.0 0.0 0.00 0.00 0.03 60 928.0
20260506143702 17 130 0.0 0.0 0.00 0.00 0.03 60 928.1
20260506143601 17 130 0.0 0.0 0.00 0.00 0.03 60 927.9
20260506143501 17 130 0.0 0.0 0.00 0.00 0.03 61 928.0
20260506143401 17 130 0.0 0.0 0.00 0.00 0.03 61 928.2
20260506143303 17 130 0.0 0.0 0.00 0.00 0.03 59 927.8
20260506143201 17 130 0.0 0.0 0.00 0.00 0.03 58 928.1
20260506143101 17 130 0.0 0.0 0.00 0.00 0.03 59 927.9
20260506143001 17 130 0.0 0.0 0.00 0.00 0.03 57 928.0
20260506142901 17 130 0.0 1.6 0.00 0.00 0.03 57 927.9
20260506142801 17 130 1.6 1.6 0.00 0.00 0.03 54 928.1
20260506142701 17 130 0.0 0.0 0.00 0.00 0.03 55 928.1
20260506142601 17 137 0.0 0.0 0.00 0.00 0.03 56 928.1
20260506142502 17 137 0.0 0.0 0.00 0.00 0.03 58 928.3
20260506142401 17 137 0.0 0.0 0.00 0.00 0.03 59 928.2
20260506142302 17 137 0.0 0.0 0.00 0.00 0.03 58 928.1
20260506142201 17 137 0.0 0.0 0.00 0.00 0.03 56 928.1
20260506142101 17 137 0.0 1.6 0.00 0.00 0.03 57 927.9
20260506142001 17 137 0.0 1.6 0.00 0.00 0.03 56 928.1
20260506141901 17 170 0.0 0.0 0.00 0.00 0.03 56 928.1
20260506141802 17 171 0.0 0.0 0.00 0.00 0.03 56 928.2
20260506141701 17 171 0.0 1.6 0.00 0.00 0.03 54 928.0
20260506141601 17 171 0.0 1.6 0.00 0.00 0.03 55 928.2
20260506141501 17 171 0.0 1.6 0.00 0.00 0.03 56 928.2
20260506141401 17 171 0.0 1.6 0.00 0.00 0.03 54 928.3
20260506141300 17 172 1.6 1.6 0.00 0.00 0.03 54 928.2
20260506141201 17 156 1.6 1.6 0.00 0.00 0.03 54 928.2
20260506141101 17 130 1.6 1.6 0.00 0.00 0.03 54 928.4
20260506141001 17 163 0.0 1.6 0.00 0.00 0.03 56 928.0
20260506140901 18 162 0.0 1.6 0.00 0.00 0.03 55 928.2
20260506140804 18 171 1.6 3.2 0.00 0.00 0.03 53 928.2
20260506140700 18 184 1.6 1.6 0.00 0.00 0.03 55 928.6
20260506140601 18 209 1.6 1.6 0.00 0.00 0.03 53 928.3
20260506140500 18 169 1.6 3.2 0.00 0.00 0.03 53 928.3
20260506140401 18 151 1.6 3.2 0.00 0.00 0.03 52 928.3
20260506140301 18 159 1.6 3.2 0.00 0.00 0.03 53 928.3
20260506140201 18 141 1.6 1.6 0.00 0.00 0.03 55 928.3
20260506140100 18 136 1.6 1.6 0.00 0.00 0.03 55 928.4
20260506140001 18 190 1.6 3.2 0.00 0.00 0.03 54 928.5
20260506135902 18 172 1.6 3.2 0.00 0.00 0.03 53 928.4
20260506135801 18 166 1.6 1.6 0.00 0.00 0.03 55 928.3
20260506135702 18 142 1.6 3.2 0.00 0.00 0.03 56 928.3
20260506135600 18 134 1.6 3.2 0.00 0.00 0.03 55 928.4
20260506135501 18 153 1.6 1.6 0.00 0.00 0.03 55 928.4
20260506135401 18 155 1.6 3.2 0.00 0.00 0.03 56 928.4
20260506135300 18 155 1.6 3.2 0.00 0.00 0.03 56 928.4
20260506135201 17 170 3.2 4.8 0.00 0.00 0.03 53 928.6
20260506135101 17 178 3.2 4.8 0.00 0.00 0.03 53 928.5
20260506135001 18 173 3.2 4.8 0.00 0.00 0.03 53 928.4
20260506134901 18 186 3.2 4.8 0.00 0.00 0.03 53 928.4
20260506134801 18 166 1.6 3.2 0.00 0.00 0.03 53 928.5
20260506134701 18 193 3.2 4.8 0.00 0.00 0.03 54 928.4
20260506134601 18 179 3.2 4.8 0.00 0.00 0.03 53 928.5
20260506134501 18 166 1.6 4.8 0.00 0.00 0.03 53 928.6
20260506134402 18 145 3.2 4.8 0.00 0.00 0.03 53 928.4
20260506134300 18 151 4.8 4.8 0.00 0.00 0.03 53 928.4
20260506134200 18 192 3.2 4.8 0.00 0.00 0.03 52 928.5
20260506134101 18 146 3.2 6.4 0.00 0.00 0.03 53 928.6
20260506134002 18 141 3.2 4.8 0.00 0.00 0.03 52 928.6
20260506133901 18 145 3.2 3.2 0.00 0.00 0.03 53 928.6
20260506133802 18 167 3.2 4.8 0.00 0.00 0.03 53 928.5
20260506133700 18 156 3.2 4.8 0.00 0.00 0.03 53 928.4
20260506133602 18 144 3.2 6.4 0.00 0.00 0.03 53 928.4
20260506133502 18 151 6.4 6.4 0.00 0.00 0.03 52 928.6
20260506133401 18 174 4.8 6.4 0.00 0.00 0.03 51 928.5
20260506133302 18 182 4.8 6.4 0.00 0.00 0.03 52 928.5
20260506133201 18 173 4.8 6.4 0.00 0.00 0.03 52 928.5
20260506133101 18 174 1.6 4.8 0.00 0.00 0.03 52 928.6
20260506133001 18 162 3.2 4.8 0.00 0.00 0.03 52 928.7
20260506132901 18 187 3.2 4.8 0.00 0.00 0.03 52 928.5
20260506132800 18 205 4.8 6.4 0.00 0.00 0.03 51 928.7
20260506132701 18 145 4.8 6.4 0.00 0.00 0.03 51 928.5
20260506132601 18 167 3.2 6.4 0.00 0.00 0.03 53 928.9
20260506132501 18 160 3.2 6.4 0.00 0.00 0.03 51 928.6
20260506132401 18 169 3.2 4.8 0.00 0.00 0.03 51 928.7
20260506132302 18 154 3.2 4.8 0.00 0.00 0.03 50 928.8
20260506132201 18 168 4.8 4.8 0.00 0.00 0.03 51 928.7
20260506132101 18 148 3.2 4.8 0.00 0.00 0.03 50 928.8
20260506132001 18 180 4.8 4.8 0.00 0.00 0.03 51 928.6
20260506131901 18 207 3.2 4.8 0.00 0.00 0.03 50 928.8
20260506131801 18 165 3.2 4.8 0.00 0.00 0.03 50 928.8
20260506131701 19 180 3.2 4.8 0.00 0.00 0.03 50 928.9
20260506131602 19 171 3.2 4.8 0.00 0.00 0.03 51 928.7
20260506131502 19 191 3.2 6.4 0.00 0.00 0.03 49 928.6
20260506131401 19 168 4.8 6.4 0.00 0.00 0.03 50 928.7
20260506131303 19 166 1.6 4.8 0.00 0.00 0.03 51 928.8
20260506131201 19 182 3.2 4.8 0.00 0.00 0.03 50 928.7
20260506131101 19 168 3.2 4.8 0.00 0.00 0.03 51 928.8
20260506131001 19 147 4.8 4.8 0.00 0.00 0.03 49 928.8
20260506130902 19 175 3.2 4.8 0.00 0.00 0.03 49 929.0
20260506130801 19 161 3.2 4.8 0.00 0.00 0.03 51 928.8
20260506130701 19 191 3.2 4.8 0.00 0.00 0.03 49 928.8
20260506130601 20 198 3.2 4.8 0.00 0.00 0.03 49 928.8
20260506130501 20 195 3.2 4.8 0.00 0.00 0.03 47 928.9
20260506130401 20 204 4.8 4.8 0.00 0.00 0.03 47 928.8
20260506130301 20 189 3.2 4.8 0.00 0.00 0.03 48 928.9
20260506130201 20 162 3.2 4.8 0.00 0.00 0.03 49 928.8
20260506130002 20 198 3.2 8.0 0.00 0.00 0.03 48 928.8
20260506125901 20 181 6.4 8.0 0.00 0.00 0.03 47 928.8
20260506125800 20 172 3.2 6.4 0.00 0.00 0.03 48 929.0
20260506125700 20 168 3.2 6.4 0.00 0.00 0.03 48 928.7
20260506125601 20 200 6.4 6.4 0.00 0.00 0.03 47 928.9
20260506125501 20 181 3.2 4.8 0.00 0.00 0.03 48 928.9
20260506125400 20 170 3.2 4.8 0.00 0.00 0.03 47 928.9
20260506125301 20 170 3.2 4.8 0.00 0.00 0.03 47 928.9
20260506125201 20 187 3.2 4.8 0.00 0.00 0.03 46 929.1
20260506125101 20 164 4.8 4.8 0.00 0.00 0.03 48 929.0
20260506125001 20 195 4.8 6.4 0.00 0.00 0.03 47 928.9
20260506124901 20 122 4.8 6.4 0.00 0.00 0.03 46 929.1
20260506124801 20 151 6.4 11.3 0.00 0.00 0.03 50 929.0
20260506124700 20 150 4.8 11.3 0.00 0.00 0.03 49 929.0
20260506124601 20 156 3.2 4.8 0.00 0.00 0.03 49 929.0
20260506124501 19 177 3.2 4.8 0.00 0.00 0.03 51 929.1
20260506124401 19 201 4.8 4.8 0.00 0.00 0.03 52 928.8
20260506124301 18 158 3.2 4.8 0.00 0.00 0.03 52 928.9
20260506124202 18 195 3.2 4.8 0.00 0.00 0.03 51 929.0
20260506124102 18 154 1.6 4.8 0.00 0.00 0.03 51 929.1
20260506124001 18 176 1.6 4.8 0.00 0.00 0.03 54 929.2
20260506123901 18 192 1.6 3.2 0.00 0.00 0.03 53 928.9
20260506123801 18 181 1.6 3.2 0.00 0.00 0.03 52 929.1
20260506123701 18 196 1.6 1.6 0.00 0.00 0.03 53 929.1
20260506123601 18 183 1.6 1.6 0.00 0.00 0.03 51 929.2
20260506123501 18 212 1.6 1.6 0.00 0.00 0.03 52 929.1
20260506123401 18 173 1.6 1.6 0.00 0.00 0.03 55 929.1
20260506123301 18 147 1.6 1.6 0.00 0.00 0.03 55 929.2
20260506123201 18 168 1.6 1.6 0.00 0.00 0.03 54 929.1
20260506123102 18 193 1.6 1.6 0.00 0.00 0.03 54 929.4
20260506123001 18 173 1.6 1.6 0.00 0.00 0.03 53 929.2
20260506122901 18 218 1.6 3.2 0.00 0.00 0.03 54 929.2
20260506122800 18 219 1.6 3.2 0.00 0.00 0.03 53 928.9
20260506122706 18 203 1.6 3.2 0.00 0.00 0.03 52 929.3
20260506122601 18 218 0.0 1.6 0.00 0.00 0.03 52 929.3
20260506122500 18 218 0.0 1.6 0.00 0.00 0.03 53 929.1
20260506122401 18 216 1.6 1.6 0.00 0.00 0.03 54 929.2
20260506122301 18 182 1.6 1.6 0.00 0.00 0.03 53 929.3
20260506122201 18 203 1.6 1.6 0.00 0.00 0.03 52 929.3
20260506122100 18 209 1.6 1.6 0.00 0.00 0.03 52 929.3
20260506122006 18 210 0.0 1.6 0.00 0.00 0.03 53 929.3
20260506121901 18 224 0.0 1.6 0.00 0.00 0.03 52 929.2
20260506121801 18 224 1.6 1.6 0.00 0.00 0.03 53 929.4
20260506121701 18 197 1.6 1.6 0.00 0.00 0.03 54 929.3
20260506121601 18 216 1.6 3.2 0.00 0.00 0.03 52 929.4
20260506121501 18 222 1.6 3.2 0.00 0.00 0.03 52 929.3
20260506121401 18 208 3.2 3.2 0.00 0.00 0.03 54 929.4
20260506121301 18 158 1.6 3.2 0.00 0.00 0.03 52 929.4
20260506121200 18 203 1.6 3.2 0.00 0.00 0.03 53 929.3
20260506121100 18 152 1.6 3.2 0.00 0.00 0.03 52 929.3
20260506121002 18 230 0.0 0.0 0.00 0.00 0.03 50 929.3
20260506120900 19 194 0.0 3.2 0.00 0.00 0.03 52 929.4
20260506120802 19 102 1.6 4.8 0.00 0.00 0.03 49 929.3
20260506120702 20 186 3.2 4.8 0.00 0.00 0.03 53 929.5
20260506120600 20 177 1.6 3.2 0.00 0.00 0.03 52 929.2
20260506120501 20 136 1.6 3.2 0.00 0.00 0.03 54 929.2
20260506120401 19 146 1.6 1.6 0.00 0.00 0.03 51 929.2
20260506120301 19 142 0.0 1.6 0.00 0.00 0.03 52 929.4
20260506120201 19 141 0.0 3.2 0.00 0.00 0.03 52 929.4
20260506120101 19 173 1.6 3.2 0.00 0.00 0.03 54 929.4
20260506120001 19 178 1.6 1.6 0.00 0.00 0.03 50 929.3
20260506115901 18 199 1.6 3.2 0.00 0.00 0.03 52 929.6
20260506115801 18 198 1.6 3.2 0.00 0.00 0.03 55 929.5
20260506115701 18 202 1.6 1.6 0.00 0.00 0.03 57 929.6
20260506115601 18 180 1.6 1.6 0.00 0.00 0.03 55 929.5
20260506115501 18 196 1.6 3.2 0.00 0.00 0.03 54 929.5
20260506115402 18 161 1.6 3.2 0.00 0.00 0.03 53 929.5
20260506115305 18 193 3.2 4.8 0.00 0.00 0.03 53 929.4
20260506115201 18 193 3.2 4.8 0.00 0.00 0.03 53 929.4
20260506115101 18 162 3.2 4.8 0.00 0.00 0.03 54 929.5
20260506115001 18 210 1.6 1.6 0.00 0.00 0.03 55 929.3
20260506114902 18 182 1.6 3.2 0.00 0.00 0.03 54 929.4
20260506114801 18 186 1.6 3.2 0.00 0.00 0.03 52 929.4
20260506114701 18 196 3.2 3.2 0.00 0.00 0.03 53 929.4
20260506114601 18 203 1.6 3.2 0.00 0.00 0.03 54 929.4
20260506114500 18 196 3.2 4.8 0.00 0.00 0.03 50 929.5
20260506114401 19 163 3.2 4.8 0.00 0.00 0.03 52 929.4
20260506114300 19 194 3.2 4.8 0.00 0.00 0.03 51 929.5
20260506114201 18 187 3.2 4.8 0.00 0.00 0.03 54 929.4
20260506114102 18 187 3.2 4.8 0.00 0.00 0.03 52 929.5
20260506114000 18 181 4.8 4.8 0.00 0.00 0.03 52 929.4
20260506113901 18 171 4.8 6.4 0.00 0.00 0.03 50 929.7
20260506113802 18 183 4.8 6.4 0.00 0.00 0.03 51 929.4
20260506113700 18 222 3.2 4.8 0.00 0.00 0.03 51 929.2
20260506113601 18 177 3.2 3.2 0.00 0.00 0.03 52 929.5
20260506113502 18 162 1.6 3.2 0.00 0.00 0.03 55 929.7
20260506113401 18 136 1.6 3.2 0.00 0.00 0.03 53 929.5
20260506113301 18 193 3.2 3.2 0.00 0.00 0.03 52 929.6
20260506113200 18 139 1.6 3.2 0.00 0.00 0.03 54 929.5
20260506113101 18 208 1.6 4.8 0.00 0.00 0.03 52 929.6
20260506113002 18 221 3.2 4.8 0.00 0.00 0.03 55 929.7
20260506112901 18 229 0.0 4.8 0.00 0.00 0.03 52 929.4
20260506112801 18 218 1.6 4.8 0.00 0.00 0.03 51 929.7
20260506112700 18 228 3.2 4.8 0.00 0.00 0.03 54 929.5
20260506112600 18 227 3.2 4.8 0.00 0.00 0.03 52 929.4
20260506112501 18 226 4.8 4.8 0.00 0.00 0.03 53 929.7
20260506112401 18 209 4.8 4.8 0.00 0.00 0.03 52 929.4
20260506112301 19 217 4.8 4.8 0.00 0.00 0.03 52 929.7
20260506112201 19 198 3.2 4.8 0.00 0.00 0.03 51 929.6
20260506112101 19 216 3.2 6.4 0.00 0.00 0.03 51 929.7
20260506112001 19 201 6.4 6.4 0.00 0.00 0.03 50 929.6
20260506111901 18 186 3.2 6.4 0.00 0.00 0.03 54 929.6
20260506111801 18 129 3.2 4.8 0.00 0.00 0.03 54 929.6
20260506111701 18 156 1.6 3.2 0.00 0.00 0.03 55 929.7
20260506111601 18 210 1.6 1.6 0.00 0.00 0.03 57 929.8
20260506111501 18 285 0.0 1.6 0.00 0.00 0.03 58 929.6
20260506111401 18 27 1.6 1.6 0.00 0.00 0.03 54 929.6
20260506111301 18 331 0.0 1.6 0.00 0.00 0.03 57 929.6
20260506111201 18 331 1.6 3.2 0.00 0.00 0.03 56 929.7
20260506111101 18 328 1.6 3.2 0.00 0.00 0.03 55 929.5
20260506111002 18 329 1.6 3.2 0.00 0.00 0.03 55 929.5
20260506110901 17 275 0.0 0.0 0.00 0.00 0.03 56 929.7
20260506110801 17 267 0.0 1.6 0.00 0.00 0.03 57 929.6
20260506110700 17 267 0.0 1.6 0.00 0.00 0.03 59 929.8
20260506110602 17 286 0.0 1.6 0.00 0.00 0.03 58 929.6
20260506110501 17 280 0.0 1.6 0.00 0.00 0.03 56 929.6
20260506110402 17 282 1.6 1.6 0.00 0.00 0.03 58 929.7
20260506110301 17 277 1.6 1.6 0.00 0.00 0.03 58 929.8
20260506110202 17 222 0.0 1.6 0.00 0.00 0.03 56 929.8
20260506110000 17 226 1.6 3.2 0.00 0.00 0.03 59 929.8
20260506105902 17 211 1.6 3.2 0.00 0.00 0.03 58 929.9
20260506105801 17 202 1.6 4.8 0.00 0.00 0.03 56 930.1
20260506105701 17 203 3.2 4.8 0.00 0.00 0.03 55 930.0
20260506105600 17 195 3.2 4.8 0.00 0.00 0.03 55 929.8
20260506105502 17 163 1.6 3.2 0.00 0.00 0.03 56 930.0
20260506105400 17 193 1.6 3.2 0.00 0.00 0.03 56 929.8
20260506105304 17 198 3.2 3.2 0.00 0.00 0.03 56 929.9
20260506105201 17 183 3.2 3.2 0.00 0.00 0.03 57 929.8
20260506105101 17 183 3.2 3.2 0.00 0.00 0.03 57 929.8
20260506105001 17 170 1.6 3.2 0.00 0.00 0.03 57 929.8
20260506104900 17 187 3.2 3.2 0.00 0.00 0.03 57 929.8
20260506104801 17 204 1.6 3.2 0.00 0.00 0.03 60 930.0
20260506104701 17 222 1.6 3.2 0.00 0.00 0.03 58 929.7
20260506104601 17 228 1.6 3.2 0.00 0.00 0.03 59 929.9
20260506104501 17 287 0.0 1.6 0.00 0.00 0.03 57 929.8
20260506104402 17 261 1.6 4.8 0.00 0.00 0.03 58 929.9
20260506104302 17 187 3.2 4.8 0.00 0.00 0.03 57 929.8
20260506104201 18 221 1.6 1.6 0.00 0.00 0.03 62 929.9
20260506104101 18 215 1.6 3.2 0.00 0.00 0.03 59 929.8
20260506104002 18 200 1.6 3.2 0.00 0.00 0.03 57 930.0
20260506103901 18 202 1.6 3.2 0.00 0.00 0.03 58 929.7
20260506103801 18 168 0.0 1.6 0.00 0.00 0.03 55 930.0
20260506103702 18 164 1.6 1.6 0.00 0.00 0.03 56 929.9
20260506103601 18 81 0.0 0.0 0.00 0.00 0.03 56 930.1
20260506103501 18 242 0.0 0.0 0.00 0.00 0.03 57 929.7
20260506103401 18 295 0.0 0.0 0.00 0.00 0.03 56 930.0
20260506103301 18 283 0.0 1.6 0.00 0.00 0.03 56 929.9
20260506103201 17 192 1.6 1.6 0.00 0.00 0.03 56 929.8
20260506103101 17 189 0.0 1.6 0.00 0.00 0.03 59 930.1
20260506103001 17 298 0.0 1.6 0.00 0.00 0.03 59 929.8
20260506102900 17 281 0.0 1.6 0.00 0.00 0.03 58 929.9
20260506102801 17 243 0.0 1.6 0.00 0.00 0.03 60 929.9
20260506102701 17 326 0.0 1.6 0.00 0.00 0.03 59 930.1
20260506102601 17 298 0.0 1.6 0.00 0.00 0.03 58 930.2
20260506102501 17 317 1.6 1.6 0.00 0.00 0.03 59 930.0
20260506102401 17 263 0.0 1.6 0.00 0.00 0.03 61 929.9
20260506102305 17 146 0.0 1.6 0.00 0.00 0.03 59 929.9
20260506102201 17 124 1.6 1.6 0.00 0.00 0.03 60 930.0
20260506102101 17 208 0.0 1.6 0.00 0.00 0.03 59 929.8
20260506102001 17 310 0.0 1.6 0.00 0.00 0.03 60 930.0
20260506101901 17 296 0.0 1.6 0.00 0.00 0.03 59 930.0
20260506101801 17 228 0.0 0.0 0.00 0.00 0.03 61 929.9
20260506101700 17 226 0.0 1.6 0.00 0.00 0.03 60 930.0
20260506101600 17 226 0.0 1.6 0.00 0.00 0.03 59 930.2
20260506101501 17 250 1.6 1.6 0.00 0.00 0.03 59 930.0
20260506101401 17 261 1.6 1.6 0.00 0.00 0.03 60 930.2
20260506101301 17 254 0.0 1.6 0.00 0.00 0.03 59 930.2
20260506101201 17 254 0.0 1.6 0.00 0.00 0.03 58 930.3
20260506101101 17 231 1.6 3.2 0.00 0.00 0.03 58 930.2
20260506101001 17 230 1.6 4.8 0.00 0.00 0.03 60 930.4
20260506100901 17 199 3.2 3.2 0.00 0.00 0.03 62 930.2
20260506100801 17 200 3.2 4.8 0.00 0.00 0.03 61 930.2
20260506100701 17 157 1.6 3.2 0.00 0.00 0.03 60 930.2
20260506100601 17 159 1.6 3.2 0.00 0.00 0.03 62 930.1
20260506100501 17 202 3.2 3.2 0.00 0.00 0.03 61 930.2
20260506100400 17 189 3.2 3.2 0.00 0.00 0.03 61 930.1
20260506100301 17 181 3.2 3.2 0.00 0.00 0.03 62 930.0
20260506100201 17 198 3.2 3.2 0.00 0.00 0.03 62 930.0
20260506100101 17 205 1.6 3.2 0.00 0.00 0.03 63 930.3
20260506100001 17 213 1.6 3.2 0.00 0.00 0.03 59 930.1
20260506095901 17 230 0.0 1.6 0.00 0.00 0.03 61 930.1
20260506095802 17 279 0.0 1.6 0.00 0.00 0.03 59 930.1
20260506095702 17 267 1.6 3.2 0.00 0.00 0.03 62 930.1
20260506095601 17 220 1.6 3.2 0.00 0.00 0.03 60 929.9
20260506095502 17 221 1.6 3.2 0.00 0.00 0.03 61 930.2
20260506095401 16 226 1.6 3.2 0.00 0.00 0.03 62 930.1
20260506095300 16 234 1.6 3.2 0.00 0.00 0.03 62 930.1
20260506095200 16 201 1.6 4.8 0.00 0.00 0.03 64 930.3
20260506095100 16 210 3.2 4.8 0.00 0.00 0.03 63 930.2
20260506095002 16 210 3.2 4.8 0.00 0.00 0.03 63 930.2
20260506094900 16 286 1.6 3.2 0.00 0.00 0.03 62 930.1
20260506094801 16 196 1.6 3.2 0.00 0.00 0.03 64 930.2
20260506094701 17 187 1.6 4.8 0.00 0.00 0.03 63 930.1
20260506094601 17 197 3.2 4.8 0.00 0.00 0.03 60 930.4
20260506094501 17 208 4.8 4.8 0.00 0.00 0.03 61 930.3
20260506094400 17 247 1.6 3.2 0.00 0.00 0.03 65 930.2
20260506094302 17 221 3.2 3.2 0.00 0.00 0.03 61 930.4
20260506094201 17 242 1.6 4.8 0.00 0.00 0.03 64 930.2
20260506094101 17 227 1.6 4.8 0.00 0.00 0.03 62 930.2
20260506094001 17 206 1.6 1.6 0.00 0.00 0.03 62 930.2
20260506093901 17 234 0.0 1.6 0.00 0.00 0.03 61 930.0
20260506093801 17 234 1.6 4.8 0.00 0.00 0.03 61 930.2
20260506093701 17 194 3.2 4.8 0.00 0.00 0.03 62 930.3
20260506093601 17 201 1.6 4.8 0.00 0.00 0.03 61 930.2
20260506093501 17 208 3.2 4.8 0.00 0.00 0.03 65 930.2
20260506093400 16 225 1.6 3.2 0.00 0.00 0.03 65 930.3
20260506093300 16 219 1.6 3.2 0.00 0.00 0.03 66 930.3
20260506093200 16 285 1.6 1.6 0.00 0.00 0.03 63 930.2
20260506093101 17 257 1.6 1.6 0.00 0.00 0.03 64 930.3
20260506093001 17 293 1.6 1.6 0.00 0.00 0.03 62 930.1
20260506092901 17 283 0.0 1.6 0.00 0.00 0.03 63 930.1
20260506092802 17 281 1.6 1.6 0.00 0.00 0.03 64 930.0
20260506092701 17 262 0.0 3.2 0.00 0.00 0.03 64 930.2
20260506092600 16 235 1.6 3.2 0.00 0.00 0.03 64 930.1
20260506092502 16 209 3.2 3.2 0.00 0.00 0.03 66 930.1
20260506092401 16 187 3.2 3.2 0.00 0.00 0.03 65 930.1
20260506092300 16 226 0.0 1.6 0.00 0.00 0.03 66 930.1
20260506092201 16 221 1.6 1.6 0.00 0.00 0.03 66 930.0
20260506092101 16 229 1.6 3.2 0.00 0.00 0.03 66 930.0
20260506092001 15 281 0.0 4.8 0.00 0.00 0.03 66 930.0
20260506091901 15 188 3.2 4.8 0.00 0.00 0.03 69 929.9
20260506091801 15 145 0.0 1.6 0.00 0.00 0.03 67 930.2
20260506091701 15 197 1.6 3.2 0.00 0.00 0.03 66 930.3
20260506091601 16 190 1.6 4.8 0.00 0.00 0.03 65 930.3
20260506091501 16 194 3.2 6.4 0.00 0.00 0.03 63 930.0
20260506091401 16 220 1.6 4.8 0.00 0.00 0.03 64 930.1
20260506091302 16 191 3.2 4.8 0.00 0.00 0.03 65 929.9
20260506091201 16 180 3.2 4.8 0.00 0.00 0.03 65 930.1
20260506091101 16 205 3.2 4.8 0.00 0.00 0.03 62 930.1
20260506091001 16 274 0.0 3.2 0.00 0.00 0.03 63 930.1
20260506090901 16 198 1.6 3.2 0.00 0.00 0.03 67 930.2
20260506090800 16 192 1.6 3.2 0.00 0.00 0.03 64 930.3
20260506090701 16 262 0.0 1.6 0.00 0.00 0.03 65 930.2
20260506090601 16 271 0.0 1.6 0.00 0.00 0.03 65 930.2
20260506090501 16 268 1.6 1.6 0.00 0.00 0.03 65 930.2
20260506090401 16 276 1.6 3.2 0.00 0.00 0.03 64 930.2
20260506090301 16 284 1.6 3.2 0.00 0.00 0.03 63 930.1
20260506090201 16 216 1.6 3.2 0.00 0.00 0.03 62 930.0
20260506090000 16 259 0.0 1.6 0.00 0.00 0.03 65 930.1
20260506085901 16 259 0.0 3.2 0.00 0.00 0.03 68 930.2
20260506085801 16 240 1.6 3.2 0.00 0.00 0.03 67 930.1
20260506085701 15 226 1.6 3.2 0.00 0.00 0.03 67 930.2
20260506085600 15 230 1.6 3.2 0.00 0.00 0.03 71 930.1
20260506085501 15 222 3.2 3.2 0.00 0.00 0.03 69 930.4
20260506085402 15 214 1.6 4.8 0.00 0.00 0.03 68 930.2
20260506085301 15 189 3.2 4.8 0.00 0.00 0.03 69 930.2
20260506085201 15 179 3.2 3.2 0.00 0.00 0.03 70 930.0
20260506085100 15 208 3.2 4.8 0.00 0.00 0.03 68 930.0
20260506085001 15 194 4.8 4.8 0.00 0.00 0.03 68 930.1
20260506084901 15 194 4.8 4.8 0.00 0.00 0.03 68 930.1
20260506084801 15 207 3.2 3.2 0.00 0.00 0.03 68 930.3
20260506084700 15 196 1.6 3.2 0.00 0.00 0.03 70 930.2
20260506084600 15 230 1.6 3.2 0.00 0.00 0.03 72 930.3
20260506084501 15 219 3.2 3.2 0.00 0.00 0.03 70 930.1
20260506084402 15 226 1.6 3.2 0.00 0.00 0.03 72 930.1
20260506084300 15 198 3.2 4.8 0.00 0.00 0.03 69 930.2
20260506084201 15 195 3.2 4.8 0.00 0.00 0.03 68 930.1
20260506084101 15 222 1.6 3.2 0.00 0.00 0.03 70 930.0
20260506084001 15 225 1.6 4.8 0.00 0.00 0.03 70 930.1
20260506083901 15 192 3.2 4.8 0.00 0.00 0.03 72 930.2
20260506083801 15 166 1.6 3.2 0.00 0.00 0.03 70 930.2
20260506083701 15 194 3.2 4.8 0.00 0.00 0.03 70 930.0
20260506083601 15 187 1.6 4.8 0.00 0.00 0.03 69 930.1
20260506083501 16 186 3.2 4.8 0.00 0.00 0.03 67 930.0
20260506083400 16 200 3.2 4.8 0.00 0.00 0.03 68 930.1
20260506083301 16 192 3.2 3.2 0.00 0.00 0.03 69 930.2
20260506083201 15 220 1.6 1.6 0.00 0.00 0.03 68 930.2
20260506083101 15 240 0.0 3.2 0.00 0.00 0.03 71 930.1
20260506083001 15 180 3.2 4.8 0.00 0.00 0.03 72 929.9
20260506082901 15 226 3.2 3.2 0.00 0.00 0.03 72 930.0
20260506082801 15 228 1.6 3.2 0.00 0.00 0.03 73 930.0
20260506082701 15 205 3.2 3.2 0.00 0.00 0.03 71 930.2
20260506082600 15 196 1.6 4.8 0.00 0.00 0.03 69 930.1
20260506082501 15 211 3.2 4.8 0.00 0.00 0.03 68 930.0
20260506082400 15 228 3.2 3.2 0.00 0.00 0.03 74 930.2
20260506082105 15 288 0.0 1.6 0.00 0.00 0.03 72 930.0
20260506082001 15 288 0.0 3.2 0.00 0.00 0.03 72 930.1
20260506081800 15 232 1.6 3.2 0.00 0.00 0.03 73 930.0
20260506081701 15 187 1.6 3.2 0.00 0.00 0.03 71 929.9
20260506081601 15 227 1.6 1.6 0.00 0.00 0.03 71 930.0
20260506081501 15 201 0.0 1.6 0.00 0.00 0.03 73 930.0
20260506081402 15 188 1.6 1.6 0.00 0.00 0.03 72 930.2
20260506081301 15 224 0.0 1.6 0.00 0.00 0.03 70 930.1
20260506081201 15 227 0.0 3.2 0.00 0.00 0.03 70 930.2
20260506081101 15 258 0.0 3.2 0.00 0.00 0.03 71 930.1
20260506081001 15 220 1.6 3.2 0.00 0.00 0.03 71 929.9
20260506080901 14 231 0.0 1.6 0.00 0.00 0.03 70 930.1
20260506080801 14 230 1.6 3.2 0.00 0.00 0.03 72 930.0
20260506080701 14 241 1.6 3.2 0.00 0.00 0.03 73 930.2
20260506080601 14 218 1.6 3.2 0.00 0.00 0.03 73 930.0
20260506080500 14 223 1.6 4.8 0.00 0.00 0.03 73 930.1
20260506080402 14 219 3.2 4.8 0.00 0.00 0.03 73 929.9
20260506080302 14 235 1.6 3.2 0.00 0.00 0.03 73 930.2
20260506080202 14 219 3.2 3.2 0.00 0.00 0.03 74 930.2
20260506073501 13 289 1.6 1.6 0.00 0.00 0.03 76 930.2
20260506073401 13 282 1.6 1.6 0.00 0.00 0.03 77 930.3
20260506073301 13 286 1.6 1.6 0.00 0.00 0.03 76 929.9
20260506073201 13 283 1.6 1.6 0.00 0.00 0.03 77 930.1
20260506073101 13 281 1.6 1.6 0.00 0.00 0.03 76 930.1
20260506073001 13 283 1.6 1.6 0.00 0.00 0.03 76 930.2
20260506072901 13 291 1.6 1.6 0.00 0.00 0.03 76 930.1
20260506072806 13 271 0.0 3.2 0.00 0.00 0.03 77 930.3
20260506072702 13 233 1.6 3.2 0.00 0.00 0.03 75 930.3
20260506072601 13 232 1.6 1.6 0.00 0.00 0.03 76 930.1
20260506072501 13 236 1.6 1.6 0.00 0.00 0.03 76 930.0
20260506072401 13 268 1.6 3.2 0.00 0.00 0.03 75 930.2
20260506072305 13 262 1.6 3.2 0.00 0.00 0.03 75 930.2
20260506072201 13 285 1.6 3.2 0.00 0.00 0.03 75 930.1
20260506072101 13 250 1.6 3.2 0.00 0.00 0.03 75 930.2
20260506072001 13 245 1.6 3.2 0.00 0.00 0.03 75 930.2
20260506071901 13 274 1.6 1.6 0.00 0.00 0.03 75 930.3
20260506071800 13 267 1.6 3.2 0.00 0.00 0.03 74 930.2
20260506071701 13 274 1.6 3.2 0.00 0.00 0.03 74 930.1
20260506071601 13 282 1.6 1.6 0.00 0.00 0.03 76 930.1
20260506071500 13 300 1.6 3.2 0.00 0.00 0.03 75 930.1
20260506071401 13 280 1.6 3.2 0.00 0.00 0.03 74 930.2
20260506071302 13 291 1.6 3.2 0.00 0.00 0.03 74 930.1
20260506071201 13 284 3.2 3.2 0.00 0.00 0.03 74 930.2
20260506070902 13 220 1.6 4.8 0.00 0.00 0.03 74 930.2
20260506070802 14 292 1.6 4.8 0.00 0.00 0.03 74 930.1
20260506070701 14 281 1.6 4.8 0.00 0.00 0.03 73 930.4
20260506070601 14 223 1.6 1.6 0.00 0.00 0.03 74 930.1
20260506070501 14 254 0.0 1.6 0.00 0.00 0.03 74 930.3
20260506070401 14 263 1.6 3.2 0.00 0.00 0.03 75 930.1
20260506070301 14 283 1.6 3.2 0.00 0.00 0.03 74 930.0
20260506070200 13 240 1.6 3.2 0.00 0.00 0.03 74 930.2
20260506062501 13 222 1.6 3.2 0.00 0.00 0.03 78 929.7
20260506062402 13 233 1.6 3.2 0.00 0.00 0.03 78 929.7
20260506062301 13 241 1.6 3.2 0.00 0.00 0.03 78 929.8
20260506062201 13 278 1.6 4.8 0.00 0.00 0.03 78 929.7
20260506062101 13 243 1.6 4.8 0.00 0.00 0.03 78 929.8
20260506062000 13 231 1.6 4.8 0.00 0.00 0.03 77 929.7
20260506061902 13 226 3.2 4.8 0.00 0.00 0.03 77 929.8
20260506061800 13 218 1.6 4.8 0.00 0.00 0.03 78 929.8
20260506061702 13 231 1.6 3.2 0.00 0.00 0.03 76 929.7
20260506061601 13 252 1.6 1.6 0.00 0.00 0.03 77 929.9
20260506061501 13 234 1.6 3.2 0.00 0.00 0.03 78 929.6
20260506061401 13 237 1.6 4.8 0.00 0.00 0.03 78 929.7
20260506061301 13 227 1.6 4.8 0.00 0.00 0.03 77 929.8
20260506061201 13 228 3.2 3.2 0.00 0.00 0.03 76 929.7
20260506061100 13 228 1.6 3.2 0.00 0.00 0.03 76 930.0
20260506061001 13 224 1.6 3.2 0.00 0.00 0.03 77 929.8
20260506060901 13 221 1.6 3.2 0.00 0.00 0.03 80 929.9
20260506060801 13 210 1.6 3.2 0.00 0.00 0.03 80 929.9
20260506060703 13 243 1.6 3.2 0.00 0.00 0.03 78 929.8
20260506060602 13 278 1.6 3.2 0.00 0.00 0.03 77 929.6
20260506060502 12 234 1.6 3.2 0.00 0.00 0.03 80 929.8
20260506060401 12 230 0.0 3.2 0.00 0.00 0.03 81 929.6
20260506060300 12 225 1.6 3.2 0.00 0.00 0.03 81 929.8
20260506060201 12 221 1.6 3.2 0.00 0.00 0.03 82 929.9
20260506051401 12 218 1.6 3.2 0.00 0.00 0.03 85 929.3
20260506051301 12 265 1.6 1.6 0.00 0.00 0.03 86 929.6
20260506051201 12 250 1.6 1.6 0.00 0.00 0.03 86 929.6
20260506051102 12 261 0.0 1.6 0.00 0.00 0.03 86 929.5
20260506051000 12 275 0.0 1.6 0.00 0.00 0.03 86 929.6
20260506050901 12 235 1.6 1.6 0.00 0.00 0.03 86 929.5
20260506050800 12 274 1.6 1.6 0.00 0.00 0.03 86 929.5
20260506050701 12 279 1.6 3.2 0.00 0.00 0.03 86 929.4
20260506050601 12 268 1.6 3.2 0.00 0.00 0.03 86 929.7
20260506050501 12 264 0.0 1.6 0.00 0.00 0.03 86 929.5
20260506050402 12 224 1.6 1.6 0.00 0.00 0.03 86 929.5
20260506050300 12 274 1.6 1.6 0.00 0.00 0.03 87 929.3
20260506050201 11 270 1.6 1.6 0.00 0.00 0.03 87 929.4
20260506045101 11 267 1.6 3.2 0.00 0.00 0.03 89 929.4
20260506045002 11 225 1.6 4.8 0.00 0.00 0.03 89 929.3
20260506044902 11 221 3.2 4.8 0.00 0.00 0.03 89 929.3
20260506044801 11 221 1.6 4.8 0.00 0.00 0.03 89 929.2
20260506044700 11 232 1.6 4.8 0.00 0.00 0.03 89 929.2
20260506044601 11 220 3.2 3.2 0.00 0.00 0.03 89 929.6
20260506044501 11 220 3.2 3.2 0.00 0.00 0.03 89 929.6
20260506044401 11 221 3.2 3.2 0.00 0.00 0.03 90 929.3
20260506044302 11 220 0.0 1.6 0.00 0.00 0.03 90 929.3
20260506044205 11 233 0.0 1.6 0.00 0.00 0.03 91 929.3
20260506044105 11 232 0.0 1.6 0.00 0.00 0.03 91 929.3
20260506044002 11 234 0.0 3.2 0.00 0.00 0.03 91 929.2
20260506043801 11 253 0.0 3.2 0.00 0.00 0.03 91 929.3
20260506043701 11 198 3.2 3.2 0.00 0.00 0.03 92 929.3
20260506043601 11 224 1.6 3.2 0.00 0.00 0.03 92 929.3
20260506043501 11 215 1.6 3.2 0.00 0.00 0.03 92 929.4
20260506043400 11 197 1.6 3.2 0.00 0.00 0.03 92 929.6
20260506043300 11 224 1.6 3.2 0.00 0.00 0.03 92 929.3
20260506043200 11 217 3.2 3.2 0.00 0.00 0.03 92 929.5
20260506043101 11 233 1.6 4.8 0.00 0.00 0.03 92 929.4
20260506043000 11 188 3.2 4.8 0.00 0.00 0.03 93 929.1
20260506042901 11 226 1.6 3.2 0.00 0.00 0.03 93 929.3
20260506042802 11 239 1.6 3.2 0.00 0.00 0.03 93 929.4
20260506042701 11 228 1.6 1.6 0.00 0.00 0.03 94 929.3
20260506042600 11 236 1.6 3.2 0.00 0.00 0.03 95 929.2
20260506042501 11 213 1.6 4.8 0.00 0.00 0.03 95 929.3
20260506042401 11 217 3.2 4.8 0.00 0.00 0.03 96 929.4
20260506042304 11 210 3.2 3.2 0.00 0.00 0.03 96 929.2
20260506042201 11 235 1.6 3.2 0.00 0.00 0.03 96 929.2
20260506042101 11 220 1.6 3.2 0.00 0.00 0.03 97 929.2
20260506042001 11 218 1.6 3.2 0.00 0.00 0.03 97 929.2
20260506041901 11 215 1.6 4.8 0.00 0.00 0.03 97 929.2
20260506041800 11 211 3.2 4.8 0.00 0.00 0.03 97 929.0
20260506041701 11 219 3.2 4.8 0.00 0.00 0.03 97 929.1
20260506041601 11 275 1.6 4.8 0.00 0.00 0.03 98 929.1
20260506041502 11 224 3.2 4.8 0.00 0.00 0.03 98 929.0
20260506041401 11 211 4.8 4.8 0.00 0.00 0.03 98 929.1
20260506041301 11 209 3.2 4.8 0.00 0.00 0.03 98 929.1
20260506041201 11 263 1.6 4.8 0.00 0.00 0.03 98 929.0
20260506041101 11 223 1.6 3.2 0.00 0.00 0.03 98 929.2
20260506041000 11 221 1.6 3.2 0.00 0.00 0.03 98 929.2
20260506040901 11 231 3.2 3.2 0.00 0.00 0.03 98 929.1
20260506040801 11 203 1.6 3.2 0.00 0.00 0.03 98 929.2
20260506040701 11 214 3.2 3.2 0.00 0.00 0.03 98 929.2
20260506040601 10 220 3.2 4.8 0.00 0.00 0.03 98 929.0
20260506040501 10 237 3.2 4.8 0.00 0.00 0.03 98 929.0
20260506040402 10 189 3.2 4.8 0.00 0.00 0.03 98 929.0
20260506040301 10 203 3.2 4.8 0.00 0.00 0.03 98 929.1
20260506040202 10 234 1.6 3.2 0.00 0.00 0.03 98 929.0
20260506040002 10 217 1.6 4.8 0.00 0.00 0.03 98 928.8
20260506035901 10 226 3.2 4.8 0.00 0.00 0.03 98 928.9
20260506035801 10 211 3.2 3.2 0.00 0.00 0.03 98 928.8
20260506035701 10 205 3.2 3.2 0.00 0.00 0.03 98 929.1